KE5JZM-1 Weather Reports


time (UTC)temp
F
wind
direction
speed
knots
gust
knots
rain 1hr
in
rain 24hr
in
rain mn
in
humidity
%
barometer
mb
20260510131125 76 312 0.9 0.9 0.00 1.37 0.00 63 1015.7
20260510131025 76 314 0.9 0.9 0.00 1.38 0.00 63 1015.7
20260510130925 76 316 0.9 0.9 0.00 1.38 0.00 63 1015.7
20260510130726 76 322 0.9 0.9 0.00 1.40 0.00 63 1015.7
20260510130625 76 319 0.9 0.9 0.00 1.40 0.00 63 1015.7
20260510130527 76 306 0.9 0.9 0.00 1.41 0.00 63 1015.7
20260510130426 76 311 0.9 0.9 0.00 1.41 0.00 63 1015.7
20260510130226 76 326 0.9 0.9 0.00 1.44 0.00 63 1015.7
20260510130125 76 310 0.9 0.9 0.00 1.45 0.00 63 1015.7
20260510130025 76 310 0.9 0.9 0.00 1.52 0.00 63 1015.7
20260510125937 76 308 0.9 0.9 0.00 1.52 0.00 63 1015.7
20260510125930 76 316 0.9 0.9 0.00 1.61 0.00 63 1015.7
20260510125726 76 317 0.9 0.9 0.00 1.61 0.00 63 1015.6
20260510125625 76 317 0.9 0.9 0.00 1.66 0.00 63 1015.6
20260510125527 76 321 0.9 0.9 0.00 1.66 0.00 63 1015.6
20260510125425 76 315 0.9 0.9 0.00 1.67 0.00 63 1015.5
20260510125226 76 315 0.9 0.9 0.00 1.68 0.00 63 1015.5
20260510125125 76 316 0.9 0.9 0.00 1.69 0.00 62 1015.5
20260510125025 76 316 0.9 0.9 0.00 1.69 0.00 62 1015.5
20260510124937 76 315 0.9 0.9 0.00 1.69 0.00 62 1015.5
20260510124930 76 316 0.9 0.9 0.00 1.70 0.00 62 1015.5
20260510124726 76 315 0.9 0.9 0.00 1.70 0.00 62 1015.5
20260510124625 76 315 0.9 0.9 0.00 1.70 0.00 62 1015.5
20260510124527 76 316 0.9 0.9 0.00 1.70 0.00 62 1015.5
20260510124426 76 316 0.9 0.9 0.00 1.70 0.00 62 1015.5
20260510124226 76 315 0.9 0.9 0.00 1.70 0.00 62 1015.5
20260510124126 76 315 0.9 0.9 0.00 1.70 0.00 62 1015.5
20260510124024 76 314 0.9 0.9 0.00 1.70 0.00 62 1015.5
20260510123936 76 316 0.9 0.9 0.00 1.70 0.00 62 1015.5
20260510123929 76 315 0.9 0.9 0.00 1.70 0.00 62 1015.5
20260510123723 76 316 0.9 0.9 0.00 1.70 0.00 62 1015.5
20260510123624 76 315 0.9 0.9 0.00 1.70 0.00 62 1015.5
20260510123526 76 315 0.9 0.9 0.00 1.70 0.00 61 1015.5
20260510123411 76 316 0.9 0.9 0.00 1.70 0.00 61 1015.5
20260510123211 76 315 0.9 0.9 0.00 1.70 0.00 61 1015.4
20260510123110 76 316 0.9 0.9 0.00 1.70 0.00 61 1015.4
20260510123011 76 316 0.9 0.9 0.00 1.70 0.00 62 1015.4
20260510122911 76 316 0.9 0.9 0.00 1.70 0.00 62 1015.4
20260510122710 76 315 0.9 0.9 0.00 1.70 0.00 63 1015.4
20260510122611 76 316 0.9 0.9 0.00 1.70 0.00 63 1015.4
20260510122513 76 316 0.9 0.9 0.00 1.70 0.00 63 1015.4
20260510122410 76 316 0.9 0.9 0.00 1.70 0.00 63 1015.4
20260510122211 76 316 0.9 0.9 0.00 1.70 0.00 63 1015.3
20260510122111 76 316 0.9 0.9 0.00 1.70 0.00 63 1015.3
20260510122011 76 316 0.9 0.9 0.00 1.70 0.00 63 1015.3
20260510121922 76 316 0.9 0.9 0.00 1.70 0.00 64 1015.2
20260510121915 76 316 0.9 0.9 0.00 1.70 0.00 63 1015.2
20260510121711 76 316 0.9 0.9 0.00 1.70 0.00 63 1015.2
20260510121611 76 315 0.9 0.9 0.00 1.70 0.00 64 1015.2
20260510121512 76 317 0.0 0.9 0.00 1.70 0.00 64 1015.1
20260510121411 76 315 0.0 0.9 0.00 1.70 0.00 64 1015.1
20260510121211 76 319 0.0 0.9 0.00 1.70 0.00 64 1015.1
20260510121110 76 315 0.0 0.9 0.00 1.70 0.00 64 1015.0
20260510121012 76 320 0.0 0.9 0.00 1.70 0.00 64 1015.0
20260510120911 76 317 0.0 0.9 0.00 1.70 0.00 64 1015.0
20260510120711 76 320 0.9 0.9 0.00 1.70 0.00 64 1015.1
20260510120611 76 315 0.9 0.9 0.00 1.70 0.00 64 1015.0
20260510120513 76 315 0.9 0.9 0.00 1.70 0.00 64 1015.0
20260510120411 76 318 0.9 0.9 0.00 1.70 0.00 64 1015.0
20260510120211 76 320 0.9 0.9 0.00 1.70 0.00 64 1015.0
20260510120110 76 320 0.9 0.9 0.00 1.70 0.00 64 1015.0
20260510120011 76 317 0.9 0.9 0.00 1.70 0.00 64 1014.9
20260510115909 76 311 0.9 0.9 0.00 1.70 0.00 64 1014.8
20260510115710 76 312 0.0 0.9 0.00 1.70 0.00 64 1014.7
20260510115609 76 317 0.0 0.9 0.00 1.70 0.00 64 1014.7
20260510115512 76 304 0.0 0.9 0.00 1.70 0.00 64 1014.7
20260510115410 76 324 0.0 0.9 0.00 1.70 0.00 64 1014.7
20260510115210 76 316 0.0 0.9 0.00 1.70 0.00 64 1014.7
20260510115109 76 321 0.0 0.9 0.00 1.70 0.00 64 1014.6
20260510115010 76 315 0.0 0.9 0.00 1.70 0.00 64 1014.6
20260510114909 76 313 0.0 0.9 0.00 1.70 0.00 64 1014.6
20260510114710 76 313 0.0 0.9 0.00 1.70 0.00 64 1014.5
20260510114610 76 305 0.0 0.9 0.00 1.70 0.00 64 1014.5
20260510114512 76 313 0.0 0.9 0.00 1.70 0.00 64 1014.5
20260510114410 76 324 0.0 0.9 0.00 1.70 0.00 64 1014.5
20260510114210 76 312 0.9 0.9 0.00 1.70 0.00 64 1014.4
20260510114110 76 310 0.9 0.9 0.00 1.70 0.00 64 1014.4
20260510114010 76 305 0.9 0.9 0.00 1.70 0.00 64 1014.4
20260510113910 76 320 0.9 0.9 0.00 1.70 0.00 64 1014.4
20260510113710 76 317 0.9 0.9 0.00 1.70 0.00 64 1014.4
20260510113610 76 311 0.9 0.9 0.00 1.70 0.00 64 1014.4
20260510113512 76 311 0.9 0.9 0.00 1.70 0.00 64 1014.3
20260510113410 76 323 0.9 0.9 0.00 1.70 0.00 64 1014.3
20260510113211 76 311 0.9 0.9 0.00 1.70 0.00 64 1014.2
20260510113110 76 308 0.9 0.9 0.00 1.70 0.00 64 1014.3
20260510113011 76 328 0.9 0.9 0.00 1.70 0.00 64 1014.3
20260510112910 76 319 0.9 0.9 0.00 1.70 0.00 64 1014.2
20260510112658 76 305 0.9 0.9 0.00 1.70 0.00 64 1014.2
20260510112542 76 314 0.9 0.9 0.00 1.70 0.00 64 1014.2
20260510112443 76 316 0.9 0.9 0.00 1.70 0.00 64 1014.2
20260510112343 76 317 0.9 1.7 0.00 1.70 0.00 64 1014.1
20260510112243 76 316 0.9 1.7 0.00 1.70 0.00 64 1014.1
20260510112143 76 312 0.9 1.7 0.00 1.70 0.00 64 1014.1
20260510112043 76 310 0.9 1.7 0.00 1.70 0.00 64 1014.1
20260510111943 76 312 0.9 6.1 0.00 1.70 0.00 64 1014.1
20260510111843 76 321 0.9 6.1 0.00 1.70 0.00 64 1014.1
20260510111744 76 319 0.9 6.1 0.00 1.70 0.00 64 1014.0
20260510111643 76 310 0.9 6.1 0.00 1.70 0.00 64 1014.0
20260510111543 76 314 0.9 6.1 0.00 1.70 0.00 64 1013.9
20260510111435 76 305 0.9 6.1 0.00 1.70 0.00 64 1013.9
20260510111334 76 305 0.9 6.1 0.00 1.70 0.00 64 1013.9
20260510111234 76 316 0.9 6.1 0.00 1.70 0.00 64 1013.9
20260510111134 76 316 0.9 6.1 0.00 1.70 0.00 64 1013.9
20260510111034 76 316 0.9 6.1 0.00 1.70 0.00 64 1013.9
20260510110928 76 310 0.0 1.7 0.00 1.70 0.00 64 1013.9
20260510110828 76 306 0.0 1.7 0.00 1.70 0.00 64 1013.9
20260510110729 76 316 0.0 0.9 0.00 1.70 0.00 64 1013.9
20260510110628 76 322 0.0 0.9 0.00 1.70 0.00 64 1013.8
20260510110529 76 318 0.0 0.9 0.00 1.70 0.00 64 1013.8
20260510110429 76 310 0.0 0.9 0.00 1.70 0.00 63 1013.7
20260510110404 76 306 0.0 0.9 0.00 1.70 0.00 64 1013.7
20260510110228 76 308 0.0 0.9 0.00 1.70 0.00 63 1013.7
20260510110129 76 319 0.0 0.9 0.00 1.70 0.00 63 1013.7
20260510110028 76 316 0.0 0.9 0.00 1.70 0.00 63 1013.7
20260510105929 76 312 0.0 0.9 0.00 1.70 0.00 63 1013.7
20260510105828 76 317 0.9 0.9 0.00 1.70 0.00 64 1013.7
20260510105729 76 323 0.9 0.9 0.00 1.70 0.00 64 1013.6
20260510105628 76 314 0.0 0.9 0.00 1.70 0.00 64 1013.6
20260510105529 76 314 0.9 0.9 0.00 1.70 0.00 64 1013.5
20260510105429 76 309 0.9 0.9 0.00 1.70 0.00 64 1013.5
20260510105328 76 311 0.9 0.9 0.00 1.70 0.00 64 1013.5
20260510105228 76 314 0.9 0.9 0.00 1.70 0.00 64 1013.5
20260510105128 76 318 0.9 0.9 0.00 1.70 0.00 64 1013.5
20260510105029 76 331 0.0 0.9 0.00 1.70 0.00 64 1013.4
20260510104928 76 302 0.9 1.7 0.00 1.70 0.00 64 1013.4
20260510104829 76 307 0.9 1.7 0.00 1.70 0.00 64 1013.4
20260510104728 76 313 0.9 1.7 0.00 1.70 0.00 64 1013.4
20260510104629 76 204 0.9 1.7 0.00 1.70 0.00 64 1013.4
20260510104528 76 315 0.9 1.7 0.00 1.70 0.00 64 1013.3
20260510104429 76 291 0.9 1.7 0.00 1.70 0.00 63 1013.3
20260510104328 76 316 0.9 1.7 0.00 1.70 0.00 63 1013.3
20260510104228 76 309 0.9 1.7 0.00 1.70 0.00 63 1013.2
20260510104136 76 319 0.9 1.7 0.00 1.70 0.00 63 1013.2
20260510104129 76 303 0.9 1.7 0.00 1.70 0.00 63 1013.2
20260510103929 76 303 0.9 1.7 0.00 1.70 0.00 63 1013.2
20260510103905 76 315 0.0 0.9 0.00 1.70 0.00 63 1013.2
20260510103728 76 317 0.0 0.9 0.00 1.70 0.00 63 1013.1
20260510103628 76 316 0.0 0.9 0.00 1.70 0.00 63 1013.1
20260510103529 76 316 0.0 0.9 0.00 1.70 0.00 63 1013.1
20260510103428 76 316 0.0 0.9 0.00 1.70 0.00 64 1013.1
20260510103328 76 315 0.0 0.9 0.00 1.70 0.00 64 1013.1
20260510103229 76 316 0.0 0.9 0.00 1.70 0.00 64 1013.1
20260510103129 76 316 0.0 0.9 0.00 1.70 0.00 64 1013.1
20260510103029 76 315 0.0 0.9 0.00 1.70 0.00 64 1013.1
20260510102928 76 316 0.0 0.9 0.00 1.70 0.00 64 1013.1
20260510102830 76 317 0.0 0.9 0.00 1.70 0.00 63 1013.1
20260510102729 76 317 0.0 0.9 0.00 1.70 0.00 63 1013.1
20260510102629 76 316 0.0 0.9 0.00 1.70 0.00 63 1013.1
20260510102529 76 316 0.0 0.9 0.00 1.70 0.00 63 1013.1
20260510102429 76 316 0.0 0.9 0.00 1.70 0.00 63 1013.1
20260510102329 76 316 0.0 0.9 0.00 1.70 0.00 63 1013.1
20260510102228 76 316 0.0 0.9 0.00 1.70 0.00 63 1013.1
20260510102129 76 316 0.0 0.0 0.00 1.70 0.00 63 1013.1
20260510102029 76 316 0.0 0.0 0.00 1.70 0.00 63 1013.1
20260510101929 76 316 0.0 0.0 0.00 1.70 0.00 63 1013.1
20260510101828 76 316 0.0 0.0 0.00 1.70 0.00 63 1013.1
20260510101727 76 317 0.0 0.0 0.00 1.70 0.00 63 1013.1
20260510101627 76 316 0.0 0.0 0.00 1.70 0.00 63 1013.1
20260510101527 76 316 0.0 0.0 0.00 1.70 0.00 63 1013.1
20260510101427 76 316 0.0 0.0 0.00 1.70 0.00 63 1013.1
20260510101327 76 316 0.0 0.0 0.00 1.70 0.00 63 1013.0
20260510101228 76 316 0.0 0.0 0.00 1.70 0.00 63 1013.0
20260510101127 76 316 0.0 0.0 0.00 1.70 0.00 63 1013.0
20260510101028 76 316 0.0 0.0 0.00 1.70 0.00 63 1013.0
20260510100927 76 316 0.0 0.0 0.00 1.70 0.00 63 1013.0
20260510100828 76 316 0.0 0.0 0.00 1.70 0.00 63 1012.9
20260510100727 76 316 0.0 0.0 0.00 1.70 0.00 63 1012.9
20260510100627 76 316 0.0 0.0 0.00 1.70 0.00 63 1012.9
20260510100527 76 316 0.0 0.0 0.00 1.70 0.00 63 1012.9
20260510100428 76 316 0.0 0.0 0.00 1.70 0.00 63 1012.9
20260510100327 76 316 0.0 0.0 0.00 1.70 0.00 63 1012.9
20260510100227 76 316 0.0 0.9 0.00 1.70 0.00 63 1012.9
20260510100127 76 316 0.0 0.9 0.00 1.70 0.00 63 1012.9
20260510100028 76 316 0.0 0.9 0.00 1.70 0.00 63 1012.9
20260510095927 76 316 0.0 0.9 0.00 1.70 0.00 63 1012.9
20260510095828 76 316 0.0 0.9 0.00 1.70 0.00 63 1012.8
20260510095727 76 316 0.0 0.9 0.00 1.70 0.00 63 1012.8
20260510095627 76 316 0.0 0.9 0.00 1.70 0.00 63 1012.9
20260510095527 76 316 0.0 0.9 0.00 1.70 0.00 63 1012.8
20260510095427 76 316 0.0 0.9 0.00 1.70 0.00 63 1012.8
20260510095350 76 316 0.0 0.9 0.00 1.70 0.00 63 1012.9
20260510095228 76 316 0.0 0.9 0.00 1.70 0.00 63 1012.8
20260510095127 76 316 0.0 0.9 0.00 1.70 0.00 63 1012.8
20260510095028 76 316 0.0 0.9 0.00 1.70 0.00 63 1012.8
20260510094927 76 316 0.0 0.9 0.00 1.70 0.00 63 1012.8
20260510094827 76 316 0.0 0.9 0.00 1.70 0.00 63 1012.8
20260510094727 76 316 0.0 0.9 0.00 1.70 0.00 63 1012.8
20260510094628 76 316 0.0 0.9 0.00 1.70 0.00 63 1012.8
20260510094527 76 316 0.0 0.9 0.00 1.70 0.00 63 1012.9
20260510094428 76 316 0.0 0.9 0.00 1.70 0.00 63 1012.9
20260510094327 76 316 0.0 0.9 0.00 1.70 0.00 63 1012.9
20260510094228 76 316 0.0 0.9 0.00 1.70 0.00 63 1012.9
20260510094127 76 316 0.0 0.9 0.00 1.70 0.00 63 1012.9
20260510094027 76 316 0.0 0.9 0.00 1.70 0.00 63 1012.9
20260510093928 76 316 0.0 0.9 0.00 1.70 0.00 63 1013.0
20260510093828 76 316 0.0 0.9 0.00 1.70 0.00 63 1013.0
20260510093727 76 316 0.0 0.9 0.00 1.70 0.00 63 1012.9
20260510093628 76 316 0.0 0.9 0.00 1.70 0.00 63 1012.9
20260510093528 76 316 0.0 0.9 0.00 1.70 0.00 63 1012.9
20260510093427 76 316 0.0 0.9 0.00 1.70 0.00 62 1012.9
20260510093328 76 316 0.0 0.9 0.00 1.70 0.00 62 1012.9
20260510093227 76 316 0.0 0.9 0.00 1.70 0.00 62 1012.9
20260510093128 76 316 0.0 0.0 0.00 1.70 0.00 62 1012.9
20260510093028 76 316 0.0 0.9 0.00 1.70 0.00 62 1012.9
20260510092927 76 316 0.0 0.9 0.00 1.70 0.00 62 1012.9
20260510092828 76 316 0.0 0.9 0.00 1.70 0.00 62 1012.9
20260510092727 76 316 0.0 0.9 0.00 1.70 0.00 62 1012.9
20260510092628 76 316 0.0 0.9 0.00 1.70 0.00 62 1012.9
20260510092527 76 316 0.0 0.9 0.00 1.70 0.00 62 1012.9
20260510092427 76 316 0.0 0.9 0.00 1.70 0.00 62 1012.9
20260510092328 76 316 0.0 0.9 0.00 1.70 0.00 62 1012.9
20260510092228 76 316 0.0 0.9 0.00 1.70 0.00 62 1012.8
20260510092128 76 316 0.0 0.9 0.00 1.70 0.00 62 1012.8
20260510092028 76 316 0.0 0.9 0.00 1.70 0.00 62 1012.8
20260510091932 76 316 0.0 0.9 0.00 1.70 0.00 62 1012.9
20260510091827 76 316 0.0 0.9 0.00 1.70 0.00 62 1012.8
20260510091729 76 316 0.0 0.9 0.00 1.70 0.00 62 1012.9
20260510091627 76 316 0.0 0.9 0.00 1.70 0.00 62 1012.8
20260510091528 76 316 0.0 0.9 0.00 1.70 0.00 62 1012.8
20260510091428 76 316 0.0 0.9 0.00 1.70 0.00 62 1012.8
20260510091328 76 316 0.0 0.9 0.00 1.70 0.00 62 1012.8
20260510091228 76 316 0.0 0.9 0.00 1.70 0.00 62 1012.9
20260510091127 76 316 0.0 0.9 0.00 1.70 0.00 62 1012.9
20260510091028 76 316 0.0 0.9 0.00 1.70 0.00 62 1012.9
20260510090916 76 316 0.0 0.9 0.00 1.70 0.00 62 1012.9
20260510090815 76 316 0.0 0.9 0.00 1.70 0.00 62 1012.9
20260510090714 76 316 0.0 0.9 0.00 1.70 0.00 62 1012.9
20260510090615 76 316 0.0 0.9 0.00 1.70 0.00 62 1012.9
20260510090515 76 316 0.0 0.9 0.00 1.70 0.00 62 1012.8
20260510090415 76 316 0.0 0.9 0.00 1.70 0.00 62 1012.8
20260510090315 76 316 0.0 0.9 0.00 1.70 0.00 63 1012.9
20260510090215 76 316 0.0 0.9 0.00 1.70 0.00 63 1012.8
20260510090115 76 316 0.0 0.9 0.00 1.70 0.00 64 1012.8
20260510090016 77 316 0.0 0.9 0.00 1.70 0.00 64 1012.8
20260510085915 76 316 0.0 0.9 0.00 1.70 0.00 64 1012.8
20260510085815 77 316 0.0 0.9 0.00 1.70 0.00 64 1012.8
20260510085715 77 316 0.0 0.9 0.00 1.70 0.00 64 1012.7
20260510085615 76 316 0.0 0.9 0.00 1.70 0.00 64 1012.7
20260510085515 76 316 0.0 0.9 0.00 1.70 0.00 64 1012.7
20260510085415 76 315 0.0 0.9 0.00 1.70 0.00 64 1012.7
20260510085315 76 315 0.0 0.9 0.00 1.70 0.00 64 1012.7
20260510085215 76 316 0.0 0.9 0.00 1.70 0.00 64 1012.7
20260510085115 76 316 0.0 0.9 0.00 1.70 0.00 64 1012.7
20260510085016 76 316 0.0 0.9 0.00 1.70 0.00 64 1012.8
20260510084915 76 316 0.0 0.9 0.00 1.70 0.00 64 1012.8
20260510084836 76 316 0.0 0.9 0.00 1.70 0.00 64 1012.8
20260510084715 76 316 0.9 0.9 0.00 1.70 0.00 64 1012.8
20260510084615 76 316 0.9 0.9 0.00 1.70 0.00 64 1012.8
20260510084516 76 316 0.9 0.9 0.00 1.70 0.00 64 1012.8
20260510084416 76 316 0.9 0.9 0.00 1.70 0.00 64 1012.7
20260510084337 76 316 0.9 0.9 0.00 1.70 0.00 64 1012.8
20260510084215 76 316 0.9 0.9 0.00 1.70 0.00 64 1012.8
20260510084115 76 316 0.9 0.9 0.00 1.70 0.00 64 1012.8
20260510084015 76 316 0.9 0.9 0.00 1.70 0.00 64 1012.7
20260510083915 76 316 0.9 0.9 0.00 1.70 0.00 64 1012.8
20260510083816 76 316 0.9 0.9 0.00 1.70 0.00 64 1012.8
20260510083715 76 316 0.9 0.9 0.00 1.70 0.00 64 1012.8
20260510083616 76 316 0.9 0.9 0.00 1.70 0.00 64 1012.8
20260510083516 76 316 0.0 0.9 0.00 1.70 0.00 64 1012.8
20260510083415 76 316 0.0 0.9 0.00 1.70 0.00 64 1012.8
20260510083316 76 316 0.0 0.9 0.00 1.70 0.00 64 1012.8
20260510083215 76 316 0.0 0.9 0.00 1.70 0.00 64 1012.7
20260510083116 76 316 0.0 0.9 0.00 1.70 0.00 64 1012.7
20260510083015 76 316 0.0 0.9 0.00 1.70 0.00 64 1012.8
20260510082916 76 316 0.0 0.9 0.00 1.70 0.00 64 1012.8
20260510082815 76 316 0.0 0.9 0.00 1.70 0.00 64 1012.8
20260510082714 76 316 0.0 0.9 0.00 1.70 0.00 64 1012.8
20260510082614 76 316 0.0 0.9 0.00 1.70 0.00 64 1012.8
20260510082515 76 316 0.0 0.9 0.00 1.70 0.00 64 1012.8
20260510082415 76 316 0.0 0.9 0.00 1.70 0.00 64 1012.8
20260510082336 76 316 0.0 0.9 0.00 1.70 0.00 64 1012.7
20260510082215 76 316 0.0 0.9 0.00 1.70 0.00 64 1012.8
20260510082115 77 316 0.0 0.9 0.00 1.70 0.00 64 1012.7
20260510082015 76 316 0.0 0.9 0.00 1.70 0.00 64 1012.7
20260510081915 76 316 0.0 0.9 0.00 1.70 0.00 64 1012.7
20260510081815 76 316 0.0 0.9 0.00 1.70 0.00 64 1012.8
20260510081716 76 316 0.0 0.9 0.00 1.70 0.00 64 1012.7
20260510081616 76 316 0.0 0.9 0.00 1.70 0.00 64 1012.7
20260510081515 76 316 0.0 0.9 0.00 1.70 0.00 64 1012.7
20260510081416 76 316 0.0 0.9 0.00 1.70 0.00 64 1012.7
20260510081315 76 316 0.0 0.9 0.00 1.70 0.00 64 1012.7
20260510081215 76 316 0.0 0.9 0.00 1.70 0.00 64 1012.7
20260510081115 76 316 0.0 0.9 0.00 1.70 0.00 64 1012.7
20260510081015 76 316 0.0 0.9 0.00 1.70 0.00 64 1012.7
20260510080915 76 316 0.0 0.9 0.00 1.70 0.00 64 1012.7
20260510080816 76 316 0.0 0.9 0.00 1.70 0.00 64 1012.6
20260510080715 76 316 0.0 0.9 0.00 1.70 0.00 64 1012.6
20260510080615 76 316 0.0 0.9 0.00 1.70 0.00 64 1012.6
20260510080515 77 316 0.0 0.9 0.00 1.70 0.00 64 1012.6
20260510080415 77 316 0.0 0.9 0.00 1.70 0.00 64 1012.5
20260510080315 76 316 0.0 0.9 0.00 1.70 0.00 64 1012.6
20260510080201 76 316 0.0 0.9 0.00 1.70 0.00 64 1012.6
20260510080047 76 316 0.0 0.9 0.00 1.70 0.00 64 1012.6
20260510075946 76 316 0.0 0.9 0.00 1.70 0.00 64 1012.5
20260510075846 76 316 0.0 0.9 0.00 1.70 0.00 64 1012.5
20260510075647 76 316 0.0 0.9 0.00 1.70 0.00 64 1012.5
20260510075547 76 316 0.0 0.9 0.00 1.70 0.00 64 1012.5
20260510075446 76 316 0.0 0.9 0.00 1.70 0.00 64 1012.5
20260510075345 76 316 0.0 0.9 0.00 1.70 0.00 64 1012.5
20260510075246 76 316 0.0 0.9 0.00 1.70 0.00 64 1012.5
20260510075146 76 316 0.9 0.9 0.00 1.70 0.00 64 1012.5
20260510075046 76 316 0.0 0.9 0.00 1.70 0.00 64 1012.5
20260510074947 76 316 0.9 0.9 0.00 1.70 0.00 64 1012.5
20260510074846 76 316 0.9 0.9 0.00 1.70 0.00 64 1012.5
20260510074646 76 316 0.9 0.9 0.00 1.70 0.00 64 1012.4
20260510074546 76 316 0.9 0.9 0.00 1.70 0.00 64 1012.4
20260510074446 76 316 0.0 0.9 0.00 1.70 0.00 64 1012.4
20260510074346 76 316 0.0 0.9 0.00 1.70 0.00 64 1012.4
20260510074146 76 316 0.0 0.9 0.00 1.70 0.00 64 1012.4
20260510074047 76 316 0.0 0.9 0.00 1.70 0.00 64 1012.3
20260510073946 76 316 0.0 0.9 0.00 1.70 0.00 64 1012.4
20260510073846 76 316 0.0 0.9 0.00 1.70 0.00 64 1012.3
20260510073646 76 316 0.0 0.9 0.00 1.70 0.00 64 1012.3
20260510073547 76 316 0.0 0.9 0.00 1.70 0.00 64 1012.3
20260510073447 76 316 0.0 0.9 0.00 1.70 0.00 64 1012.3
20260510073347 76 316 0.0 0.9 0.00 1.70 0.00 64 1012.3
20260510073146 76 316 0.0 0.9 0.00 1.70 0.00 64 1012.4
20260510073046 76 316 0.0 0.9 0.00 1.70 0.00 64 1012.3
20260510072947 76 316 0.0 0.9 0.00 1.70 0.00 64 1012.3
20260510072846 76 316 0.0 0.9 0.00 1.70 0.00 64 1012.4
20260510072646 76 316 0.0 0.9 0.00 1.70 0.00 64 1012.4
20260510072546 76 316 0.0 0.9 0.00 1.70 0.00 64 1012.4
20260510072447 76 316 0.0 0.9 0.00 1.70 0.00 64 1012.3
20260510072346 76 316 0.0 0.9 0.00 1.70 0.00 64 1012.3
20260510072146 76 316 0.0 0.9 0.00 1.70 0.00 64 1012.3
20260510072047 76 316 0.0 0.9 0.00 1.70 0.00 64 1012.3
20260510071947 76 316 0.0 0.9 0.00 1.70 0.00 64 1012.3
20260510071847 76 316 0.0 0.9 0.00 1.70 0.00 64 1012.3
20260510071647 76 316 0.0 0.9 0.00 1.70 0.00 64 1012.3
20260510071547 76 316 0.0 0.9 0.00 1.70 0.00 64 1012.3
20260510071447 76 316 0.0 0.9 0.00 1.70 0.00 64 1012.3
20260510071347 76 316 0.0 0.9 0.00 1.70 0.00 64 1012.3
20260510071147 76 316 0.0 0.9 0.00 1.70 0.00 64 1012.3
20260510071046 76 316 0.0 0.9 0.00 1.70 0.00 64 1012.3
20260510070947 76 316 0.0 0.9 0.00 1.70 0.00 64 1012.4
20260510070846 76 316 0.0 0.9 0.00 1.70 0.00 64 1012.3
20260510070836 76 316 0.0 0.9 0.00 1.70 0.00 64 1012.3
20260510070647 76 316 0.0 0.9 0.00 1.70 0.00 64 1012.3
20260510070546 76 316 0.0 0.9 0.00 1.70 0.00 64 1012.3
20260510070448 76 316 0.0 0.9 0.00 1.70 0.00 64 1012.3
20260510070347 76 316 0.0 0.9 0.00 1.70 0.00 64 1012.3
20260510070147 76 316 0.0 0.9 0.00 1.70 0.00 64 1012.3
20260510070046 76 316 0.0 0.9 0.00 1.70 0.00 64 1012.3
20260510065947 76 316 0.0 0.9 0.00 1.70 0.00 64 1012.3
20260510065847 76 316 0.0 0.9 0.00 1.70 0.00 64 1012.3
20260510065747 76 316 0.0 0.9 0.00 1.70 0.00 64 1012.3
20260510065647 76 316 0.0 0.9 0.00 1.70 0.00 64 1012.3
20260510065547 76 316 0.0 0.9 0.00 1.70 0.00 64 1012.2
20260510065447 76 316 0.0 0.9 0.00 1.70 0.00 64 1012.2
20260510065347 76 316 0.0 0.9 0.00 1.70 0.00 64 1012.3
20260510065247 76 316 0.0 0.9 0.00 1.70 0.00 64 1012.3
20260510065132 76 316 0.0 0.9 0.00 1.70 0.00 64 1012.3
20260510065032 76 316 0.0 0.9 0.00 1.70 0.00 64 1012.3
20260510064932 76 316 0.0 0.9 0.00 1.70 0.00 64 1012.3
20260510064832 76 316 0.0 0.9 0.00 1.70 0.00 64 1012.3
20260510064633 76 316 0.0 0.9 0.00 1.70 0.00 64 1012.3
20260510064532 76 316 0.0 0.9 0.00 1.70 0.00 64 1012.3
20260510064433 76 316 0.0 0.9 0.00 1.70 0.00 64 1012.3
20260510064332 76 316 0.0 0.9 0.00 1.70 0.00 64 1012.2
20260510064133 76 316 0.0 0.9 0.00 1.70 0.00 64 1012.3
20260510064032 76 316 0.0 0.9 0.00 1.70 0.00 64 1012.2
20260510063931 76 316 0.0 0.9 0.00 1.70 0.00 64 1012.3
20260510063832 76 316 0.0 0.9 0.00 1.70 0.00 64 1012.2
20260510063633 76 316 0.0 0.9 0.00 1.70 0.00 64 1012.2
20260510063532 76 316 0.0 0.9 0.00 1.70 0.00 64 1012.2
20260510063432 76 316 0.0 0.9 0.00 1.70 0.00 64 1012.2
20260510063332 76 316 0.0 0.9 0.00 1.70 0.00 64 1012.2
20260510063323 76 316 0.9 0.9 0.00 1.70 0.00 64 1012.2
20260510063132 76 316 0.9 0.9 0.00 1.70 0.00 64 1012.2
20260510063033 76 316 0.9 0.9 0.00 1.70 0.00 64 1012.2
20260510062932 76 316 0.9 0.9 0.00 1.70 0.00 64 1012.2
20260510062832 76 316 0.0 0.9 0.00 1.70 0.00 64 1012.2
20260510062632 76 316 0.0 0.9 0.00 1.70 0.00 64 1012.2
20260510062533 76 316 0.0 0.9 0.00 1.70 0.00 64 1012.2
20260510062432 76 316 0.9 0.9 0.00 1.70 0.00 64 1012.2
20260510062333 76 316 0.9 0.9 0.00 1.70 0.00 64 1012.3
20260510062323 76 316 0.9 0.9 0.00 1.70 0.00 64 1012.3
20260510062132 76 316 0.9 0.9 0.00 1.70 0.00 64 1012.3
20260510062033 76 316 0.9 0.9 0.00 1.70 0.00 64 1012.3
20260510061932 76 316 0.9 0.9 0.00 1.70 0.00 64 1012.3
20260510061833 76 316 0.9 0.9 0.00 1.70 0.00 64 1012.3
20260510061732 76 316 0.9 0.9 0.00 1.70 0.00 64 1012.3
20260510061633 76 316 0.9 0.9 0.00 1.70 0.00 64 1012.4
20260510061532 76 316 0.9 0.9 0.00 1.70 0.00 64 1012.4
20260510061433 76 316 0.9 0.9 0.00 1.70 0.00 64 1012.4
20260510061333 76 316 0.9 0.9 0.00 1.70 0.00 64 1012.5
20260510061232 76 316 0.9 0.9 0.00 1.70 0.00 64 1012.4
20260510061134 76 316 0.9 0.9 0.00 1.70 0.00 64 1012.5
20260510061033 76 316 0.9 0.9 0.00 1.70 0.00 64 1012.5
20260510060932 76 316 0.9 0.9 0.00 1.70 0.00 64 1012.5
20260510060832 76 316 0.9 0.9 0.00 1.70 0.00 64 1012.6
20260510060633 76 316 0.9 0.9 0.00 1.70 0.00 64 1012.6
20260510060532 76 316 0.9 0.9 0.00 1.70 0.00 64 1012.6
20260510060433 76 316 0.9 0.9 0.00 1.70 0.00 64 1012.6
20260510060334 76 316 0.9 0.9 0.00 1.70 0.00 64 1012.7
20260510060232 76 316 0.9 0.9 0.00 1.70 0.00 64 1012.6
20260510060133 76 316 0.9 0.9 0.00 1.70 0.00 64 1012.7
20260510060032 76 316 0.9 0.9 0.00 1.70 0.00 64 1012.7
20260510055933 76 316 0.9 0.9 0.00 1.70 0.00 64 1012.6
20260510055832 76 316 0.9 0.9 0.00 1.70 0.00 64 1012.7
20260510055633 76 316 0.9 0.9 0.00 1.70 0.00 63 1012.7
20260510055533 76 316 0.9 0.9 0.00 1.70 0.00 64 1012.7
20260510055432 76 316 0.9 0.9 0.00 1.70 0.00 64 1012.7
20260510055333 76 316 0.9 0.9 0.00 1.70 0.00 64 1012.7
20260510055133 76 316 0.9 0.9 0.00 1.70 0.00 64 1012.7
20260510055033 76 316 0.9 0.9 0.00 1.70 0.00 64 1012.7
20260510054932 76 316 0.9 0.9 0.00 1.70 0.00 63 1012.7
20260510054831 76 317 0.9 0.9 0.00 1.70 0.00 64 1012.7
20260510054823 76 317 0.9 0.9 0.00 1.70 0.00 64 1012.7
20260510054631 76 316 0.9 0.9 0.00 1.70 0.00 64 1012.8
20260510054537 76 316 0.9 0.9 0.00 1.70 0.00 63 1012.7
20260510054431 76 316 0.9 0.9 0.00 1.70 0.00 63 1012.7
20260510054331 76 316 0.9 0.9 0.00 1.70 0.00 63 1012.8
20260510054231 76 316 0.0 0.9 0.00 1.70 0.00 63 1012.8
20260510054131 76 316 0.0 0.9 0.00 1.70 0.00 64 1012.8
20260510054031 76 316 0.0 0.9 0.00 1.70 0.00 64 1012.8
20260510053931 76 316 0.0 0.9 0.00 1.70 0.00 63 1012.8
20260510053831 76 316 0.0 0.9 0.00 1.70 0.00 63 1012.8
20260510053730 76 316 0.9 0.9 0.00 1.70 0.00 64 1012.8
20260510053631 76 316 0.9 0.9 0.00 1.70 0.00 64 1012.7
20260510053531 76 316 0.9 0.9 0.00 1.70 0.00 63 1012.7
20260510053431 76 316 0.9 0.9 0.00 1.70 0.00 63 1012.7
20260510053331 76 316 0.9 0.9 0.00 1.70 0.00 63 1012.7
20260510053230 76 316 0.9 0.9 0.00 1.70 0.00 64 1012.7
20260510053131 76 316 0.9 0.9 0.00 1.70 0.00 64 1012.7
20260510053038 76 316 0.9 0.9 0.00 1.70 0.00 63 1012.7
20260510053031 76 316 0.9 0.9 0.00 1.70 0.00 63 1012.6
20260510052831 76 316 0.9 0.9 0.00 1.70 0.00 63 1012.6
20260510052810 76 316 0.9 0.9 0.00 1.70 0.00 63 1012.6
20260510052631 76 316 0.9 0.9 0.00 1.70 0.00 63 1012.6
20260510052531 76 316 0.9 0.9 0.00 1.70 0.00 64 1012.5
20260510052432 76 316 0.9 0.9 0.00 1.70 0.00 63 1012.5
20260510052332 76 316 0.9 0.9 0.00 1.70 0.00 64 1012.4
20260510052231 76 316 0.9 0.9 0.00 1.70 0.00 63 1012.4
20260510052132 76 316 0.9 0.9 0.00 1.70 0.00 63 1012.4
20260510052031 76 316 0.9 0.9 0.00 1.70 0.00 63 1012.4
20260510051932 76 316 0.9 0.9 0.00 1.70 0.00 63 1012.4
20260510051831 76 316 0.9 0.9 0.00 1.70 0.00 63 1012.4
20260510051731 76 316 0.9 0.9 0.00 1.70 0.00 64 1012.3
20260510051632 76 316 0.9 0.9 0.00 1.70 0.00 63 1012.3
20260510051532 76 316 0.9 0.9 0.00 1.70 0.00 63 1012.3
20260510051431 76 316 0.9 0.9 0.00 1.70 0.00 63 1012.4
20260510051331 76 316 0.9 0.9 0.00 1.70 0.00 63 1012.4
20260510051232 76 316 0.9 0.9 0.00 1.70 0.00 63 1012.3
20260510051131 76 316 0.9 0.9 0.00 1.70 0.00 63 1012.3
20260510051032 76 316 0.9 0.9 0.00 1.70 0.00 63 1012.3
20260510050931 76 316 0.9 1.7 0.00 1.70 0.00 63 1012.2
20260510050832 76 316 0.9 1.7 0.00 1.70 0.00 63 1012.2
20260510050731 76 316 0.9 1.7 0.00 1.70 0.00 63 1012.2
20260510050631 76 316 0.9 1.7 0.00 1.70 0.00 63 1012.3
20260510050532 76 316 0.9 1.7 0.00 1.70 0.00 63 1012.2
20260510050431 76 316 0.9 1.7 0.00 1.70 0.00 63 1012.2
20260510050332 76 316 0.9 1.7 0.00 1.70 0.00 63 1012.2
20260510050233 76 316 0.9 1.7 0.00 1.70 0.00 63 1012.2
20260510050131 76 316 0.9 1.7 0.00 1.70 0.00 63 1012.2
20260510050032 76 316 0.9 1.7 0.00 1.70 0.00 63 1012.2
20260510045932 76 316 0.9 1.7 0.00 1.70 1.70 63 1012.1
20260510045832 76 316 0.9 0.9 0.00 1.70 1.70 63 1012.1
20260510045732 76 316 0.9 1.7 0.00 1.70 1.70 63 1012.1
20260510045631 76 316 0.9 1.7 0.00 1.70 1.70 63 1012.1
20260510045532 76 316 0.9 1.7 0.00 1.70 1.70 63 1012.1
20260510045432 76 316 0.9 1.7 0.00 1.70 1.70 63 1012.0
20260510045320 76 315 0.9 1.7 0.00 1.70 1.70 63 1011.9
20260510045221 76 314 0.9 1.7 0.00 1.70 1.70 63 1011.8
20260510045120 76 322 0.9 1.7 0.00 1.70 1.70 63 1011.8
20260510045021 76 315 0.9 1.7 0.00 1.70 1.70 63 1011.8
20260510044920 76 315 0.9 1.7 0.00 1.70 1.70 63 1011.8
20260510044821 76 315 0.9 1.7 0.00 1.70 1.70 63 1011.8
20260510044810 76 318 0.9 1.7 0.00 1.70 1.70 63 1011.8
20260510044620 76 318 0.9 1.7 0.00 1.70 1.70 63 1011.8
20260510044521 76 300 0.9 1.7 0.00 1.70 1.70 63 1011.8
20260510044420 76 309 0.9 1.7 0.00 1.70 1.70 63 1011.7
20260510044320 76 316 0.9 1.7 0.00 1.70 1.70 63 1011.7
20260510044221 76 315 0.9 1.7 0.00 1.70 1.70 63 1011.7
20260510044120 76 308 0.9 1.7 0.00 1.70 1.70 63 1011.7
20260510044021 76 314 1.7 1.7 0.00 1.70 1.70 63 1011.7
20260510043920 76 326 0.9 1.7 0.00 1.70 1.70 63 1011.7
20260510043821 76 310 0.9 1.7 0.00 1.70 1.70 63 1011.6
20260510043719 76 335 0.9 1.7 0.00 1.70 1.70 63 1011.6
20260510043619 76 323 0.9 1.7 0.00 1.70 1.70 63 1011.6
20260510043519 76 313 0.9 1.7 0.00 1.70 1.70 63 1011.6
20260510043419 76 317 0.9 1.7 0.00 1.70 1.70 63 1011.7
20260510043319 76 329 0.9 1.7 0.00 1.70 1.70 63 1011.7
20260510043218 76 319 0.9 1.7 0.00 1.70 1.70 63 1011.6
20260510043119 76 313 0.9 1.7 0.00 1.70 1.70 63 1011.7
20260510043019 76 321 0.9 1.7 0.00 1.70 1.70 63 1011.7
20260510042919 76 316 0.9 1.7 0.00 1.70 1.70 63 1011.7
20260510042819 76 323 0.9 1.7 0.00 1.70 1.70 63 1011.7
20260510042755 76 309 0.9 1.7 0.00 1.70 1.70 63 1011.7
20260510042619 76 317 0.9 1.7 0.00 1.70 1.70 63 1011.7
20260510042519 76 314 0.9 1.7 0.00 1.70 1.70 63 1011.8
20260510042419 76 308 0.9 1.7 0.00 1.70 1.70 63 1011.8
20260510042319 76 318 0.9 1.7 0.00 1.70 1.70 63 1011.8
20260510042219 76 309 0.9 1.7 0.00 1.70 1.70 63 1011.8
20260510042119 76 315 0.9 1.7 0.00 1.70 1.70 63 1011.8
20260510042019 76 315 0.9 1.7 0.00 1.70 1.70 63 1011.8
20260510041919 76 310 0.9 1.7 0.00 1.70 1.70 63 1011.8
20260510041819 76 320 0.9 1.7 0.00 1.70 1.70 63 1011.8
20260510041755 76 319 0.9 1.7 0.00 1.70 1.70 63 1011.9
20260510041620 76 307 0.9 1.7 0.00 1.70 1.70 63 1011.9
20260510041519 76 318 0.9 1.7 0.00 1.70 1.70 63 1011.9
20260510041420 76 316 0.9 1.7 0.00 1.70 1.70 63 1011.9
20260510041320 76 315 0.9 1.7 0.00 1.70 1.70 63 1012.0
20260510041219 76 310 0.9 1.7 0.00 1.70 1.70 63 1012.0
20260510041120 76 314 0.9 1.7 0.00 1.70 1.70 63 1012.0
20260510041019 76 317 0.9 1.7 0.00 1.70 1.70 63 1012.1
20260510040919 76 313 0.9 1.7 0.00 1.70 1.70 63 1012.1
20260510040819 76 316 0.9 1.7 0.00 1.70 1.70 63 1012.1
20260510040720 76 316 0.9 1.7 0.00 1.70 1.70 63 1012.1
20260510040619 76 316 0.9 1.7 0.00 1.70 1.70 63 1012.1
20260510040519 76 316 0.9 1.7 0.00 1.70 1.70 63 1012.2
20260510040419 76 316 0.9 1.7 0.00 1.70 1.70 63 1012.2
20260510040320 76 316 0.9 1.7 0.00 1.70 1.70 63 1012.2
20260510040256 76 316 0.9 1.7 0.00 1.70 1.70 63 1012.3
20260510040119 76 316 0.9 1.7 0.00 1.70 1.70 63 1012.2
20260510040020 76 316 0.9 1.7 0.00 1.70 1.70 63 1012.3
20260510035919 76 316 0.9 1.7 0.00 1.70 1.70 63 1012.3
20260510035819 76 316 0.9 1.7 0.00 1.70 1.70 63 1012.4
20260510035719 76 315 0.9 1.7 0.00 1.70 1.70 63 1012.4
20260510035620 76 315 0.9 1.7 0.00 1.70 1.70 63 1012.4
20260510035519 76 320 0.9 1.7 0.00 1.70 1.70 63 1012.4
20260510035419 76 330 0.9 1.7 0.00 1.70 1.70 63 1012.4
20260510035320 76 316 0.9 1.7 0.00 1.70 1.70 63 1012.5
20260510035219 76 315 1.7 1.7 0.00 1.70 1.70 63 1012.5
20260510035121 76 313 1.7 1.7 0.00 1.70 1.70 63 1012.5
20260510035019 76 321 1.7 1.7 0.00 1.70 1.70 63 1012.5
20260510034920 76 313 1.7 1.7 0.00 1.70 1.70 63 1012.5
20260510034819 76 315 1.7 1.7 0.00 1.70 1.70 63 1012.5
20260510034720 76 314 1.7 1.7 0.00 1.70 1.70 63 1012.5
20260510034620 76 306 1.7 1.7 0.00 1.70 1.70 63 1012.5
20260510034520 76 136 1.7 1.7 0.00 1.70 1.70 63 1012.5
20260510034419 76 315 1.7 1.7 0.00 1.70 1.70 62 1012.5
20260510034319 76 317 0.9 1.7 0.00 1.70 1.70 62 1012.5
20260510034220 76 316 0.9 1.7 0.00 1.70 1.70 62 1012.5
20260510034120 76 137 0.9 1.7 0.00 1.70 1.70 62 1012.5
20260510034020 76 315 0.9 2.6 0.00 1.70 1.70 62 1012.5
20260510033920 76 315 0.9 2.6 0.00 1.70 1.70 62 1012.5
20260510033820 76 137 0.9 2.6 0.00 1.70 1.70 62 1012.4
20260510033755 76 316 0.9 2.6 0.00 1.70 1.70 62 1012.5
20260510033619 76 332 0.9 2.6 0.00 1.70 1.70 62 1012.4
20260510033520 76 315 0.9 2.6 0.00 1.70 1.70 62 1012.4
20260510033421 76 315 0.9 2.6 0.00 1.70 1.70 62 1012.4
20260510033319 76 316 0.9 2.6 0.00 1.70 1.70 62 1012.4
20260510033220 76 316 0.9 2.6 0.00 1.70 1.70 62 1012.4
20260510033119 76 330 0.9 2.6 0.00 1.70 1.70 62 1012.4
20260510033020 76 310 0.9 2.6 0.00 1.70 1.70 62 1012.5
20260510032905 76 316 0.9 0.9 0.00 1.70 1.70 62 1012.5
20260510032805 76 316 0.9 0.9 0.00 1.70 1.70 62 1012.5
20260510032741 76 316 0.9 0.9 0.00 1.70 1.70 62 1012.6
20260510032605 76 316 0.9 0.9 0.00 1.70 1.70 62 1012.7
20260510032505 76 316 0.9 0.9 0.00 1.70 1.70 62 1012.7
20260510032405 76 316 0.9 0.9 0.00 1.70 1.70 62 1012.8
20260510032306 76 316 0.9 0.9 0.00 1.70 1.70 62 1012.8
20260510032204 76 316 0.9 0.9 0.00 1.70 1.70 61 1012.8
20260510032105 76 316 0.9 0.9 0.00 1.70 1.70 61 1012.9
20260510032005 76 316 0.9 0.9 0.00 1.70 1.70 61 1012.9
20260510031905 76 316 0.9 0.9 0.00 1.70 1.70 61 1012.9
20260510031805 76 316 0.9 0.9 0.00 1.70 1.70 61 1012.9
20260510031706 76 316 0.9 1.7 0.00 1.70 1.70 61 1012.9
20260510031604 76 316 0.9 1.7 0.00 1.70 1.70 61 1013.0
20260510031505 76 316 0.9 1.7 0.00 1.70 1.70 61 1013.0
20260510031405 76 315 0.9 1.7 0.00 1.70 1.70 61 1013.1
20260510031305 76 319 0.9 1.7 0.00 1.70 1.70 61 1013.1
20260510031206 76 315 0.9 1.7 0.00 1.70 1.70 61 1013.1
20260510031105 76 319 0.9 1.7 0.00 1.70 1.70 61 1013.2
20260510031005 76 316 0.9 1.7 0.00 1.70 1.70 61 1013.2
20260510030905 76 316 0.9 1.7 0.00 1.70 1.70 61 1013.3
20260510030806 76 314 0.9 1.7 0.00 1.70 1.70 60 1013.4
20260510030705 76 137 0.9 1.7 0.00 1.70 1.70 61 1013.4
20260510030605 76 315 0.9 1.7 0.00 1.70 1.70 60 1013.4
20260510030505 76 316 0.9 1.7 0.00 1.70 1.70 60 1013.4
20260510030405 76 316 0.9 1.7 0.00 1.70 1.70 60 1013.4
20260510030305 76 314 0.9 1.7 0.00 1.70 1.70 60 1013.5
20260510030241 76 300 0.9 1.7 0.00 1.70 1.70 60 1013.5
20260510030105 76 315 0.9 1.7 0.00 1.70 1.70 60 1013.5
20260510030006 76 136 0.9 1.7 0.00 1.70 1.70 60 1013.5
20260510025906 76 315 0.9 0.9 0.00 1.70 1.70 60 1013.5
20260510025805 76 301 0.9 0.9 0.00 1.70 1.70 60 1013.5
20260510025705 77 296 0.9 0.9 0.00 1.70 1.70 60 1013.4
20260510025605 77 316 0.9 0.9 0.00 1.70 1.70 61 1013.4
20260510025505 76 316 0.9 0.9 0.00 1.70 1.70 61 1013.4
20260510025406 77 316 0.9 0.9 0.00 1.70 1.70 62 1013.4
20260510025306 77 316 0.9 0.9 0.00 1.70 1.70 62 1013.4
20260510025205 77 316 0.9 0.9 0.00 1.70 1.70 63 1013.4
20260510025106 77 316 0.9 0.9 0.00 1.70 1.70 63 1013.5
20260510025006 77 316 0.9 0.9 0.00 1.70 1.70 63 1013.5
20260510024905 77 316 0.9 0.9 0.00 1.70 1.70 64 1013.5
20260510024806 76 316 0.9 0.9 0.00 1.70 1.70 64 1013.4
20260510024705 77 315 0.9 1.7 0.00 1.70 1.70 64 1013.4
20260510024605 77 314 0.9 1.7 0.00 1.70 1.70 64 1013.3
20260510024506 76 315 0.9 1.7 0.00 1.70 1.70 64 1013.3
20260510024405 77 315 0.9 1.7 0.00 1.70 1.70 64 1013.2
20260510024306 77 311 0.9 1.7 0.00 1.70 1.70 64 1013.3
20260510024206 77 314 0.9 1.7 0.00 1.70 1.70 64 1013.3
20260510024105 77 305 0.9 1.7 0.00 1.70 1.70 64 1013.4
20260510024006 77 316 0.9 1.7 0.00 1.70 1.70 64 1013.4
20260510023905 76 316 0.9 1.7 0.00 1.70 1.70 64 1013.4
20260510023806 77 315 0.9 1.7 0.00 1.70 1.70 64 1013.4
20260510023705 77 316 0.9 1.7 0.00 1.70 1.70 64 1013.4
20260510023606 77 317 0.9 0.9 0.00 1.70 1.70 64 1013.4
20260510023505 77 312 0.9 0.9 0.00 1.70 1.70 64 1013.3
20260510023406 77 312 0.9 0.9 0.00 1.70 1.70 64 1013.3
20260510023306 77 136 0.9 0.9 0.00 1.70 1.70 64 1013.3
20260510023241 76 316 0.9 0.9 0.00 1.70 1.70 64 1013.3
20260510023106 77 316 0.9 0.9 0.00 1.70 1.70 64 1013.3
20260510023006 77 316 0.9 1.7 0.00 1.70 1.70 64 1013.3
20260510022906 77 315 0.9 1.7 0.00 1.70 1.70 64 1013.3
20260510022806 76 315 0.9 1.7 0.00 1.70 1.70 64 1013.3
20260510022706 77 310 0.9 1.7 0.00 1.70 1.70 64 1013.3
20260510022608 77 317 0.9 1.7 0.00 1.70 1.70 64 1013.3
20260510022505 77 329 0.9 1.7 0.00 1.70 1.70 64 1013.2
20260510022406 77 318 0.9 1.7 0.00 1.70 1.70 64 1013.2
20260510022307 76 309 0.9 1.7 0.00 1.70 1.70 64 1013.1
20260510022153 77 314 0.9 1.7 0.00 1.70 1.70 64 1013.2
20260510022037 77 316 0.9 1.7 0.00 1.70 1.70 64 1013.2
20260510021938 77 135 0.9 1.7 0.00 1.70 1.70 64 1013.1
20260510021837 77 321 0.9 1.7 0.00 1.70 1.70 64 1013.2
20260510021738 77 315 0.9 1.7 0.00 1.70 1.70 64 1013.2
20260510021640 77 315 0.9 1.7 0.00 1.70 1.70 64 1013.2
20260510021538 77 316 0.9 1.7 0.00 1.70 1.70 64 1013.3
20260510021437 77 315 0.9 1.7 0.00 1.70 1.70 64 1013.2
20260510021338 77 313 0.9 1.7 0.00 1.70 1.70 64 1013.3
20260510021238 77 137 0.9 1.7 0.00 1.70 1.70 64 1013.2
20260510021139 77 137 0.9 1.7 0.00 1.70 1.70 64 1013.2
20260510021038 77 316 0.9 0.9 0.00 1.70 1.70 64 1013.1
20260510020938 77 307 0.9 0.9 0.00 1.70 1.70 64 1013.1
20260510020837 77 315 0.9 0.9 0.00 1.70 1.70 64 1013.1
20260510020738 77 315 0.9 0.9 0.00 1.70 1.70 64 1013.0
20260510020641 77 319 0.9 0.9 0.00 1.70 1.70 64 1013.0
20260510020538 77 315 0.9 0.9 0.00 1.70 1.70 64 1013.0
20260510020437 77 315 0.9 0.9 0.00 1.70 1.70 64 1013.0
20260510020339 77 137 0.9 0.9 0.00 1.70 1.70 64 1013.0
20260510020248 77 314 0.9 0.9 0.00 1.70 1.70 64 1013.1
20260510020241 77 316 0.9 1.7 0.00 1.70 1.70 64 1013.0
20260510020038 77 316 0.9 1.7 0.00 1.70 1.70 64 1013.0
20260510015938 77 309 0.9 1.7 0.00 1.70 1.70 64 1013.0
20260510015838 77 315 0.9 1.7 0.00 1.70 1.70 64 1013.0
20260510015737 77 312 0.9 1.7 0.00 1.70 1.70 64 1013.0
20260510015640 77 137 0.9 1.7 0.00 1.70 1.70 64 1012.9
20260510015538 76 323 0.9 1.7 0.00 1.70 1.70 64 1013.0
20260510015438 77 311 0.9 1.7 0.00 1.70 1.70 64 1012.9
20260510015337 76 315 0.9 1.7 0.00 1.70 1.70 64 1013.0
20260510015238 77 315 0.9 2.6 0.00 1.70 1.70 64 1013.0
20260510015038 76 303 0.9 2.6 0.00 1.70 1.70 64 1013.1
20260510014938 77 316 0.9 2.6 0.00 1.70 1.70 64 1013.0
20260510014838 77 316 0.9 2.6 0.00 1.70 1.70 64 1013.0
20260510014738 77 302 0.9 2.6 0.00 1.70 1.70 64 1013.0
20260510014641 77 317 0.9 2.6 0.00 1.70 1.70 64 1012.9
20260510014538 77 315 0.9 2.6 0.00 1.70 1.70 64 1012.9
20260510014438 76 308 0.9 2.6 0.00 1.70 1.70 64 1012.8
20260510014338 77 316 0.9 2.6 0.00 1.70 1.70 64 1012.9
20260510014238 77 136 0.9 2.6 0.00 1.70 1.70 64 1012.9
20260510014141 77 316 0.9 0.9 0.00 1.70 1.70 64 1012.8
20260510014039 77 318 0.9 0.9 0.00 1.70 1.70 64 1012.9
20260510013938 76 315 0.9 0.9 0.00 1.70 1.70 64 1012.9
20260510013839 77 137 0.9 0.9 0.00 1.70 1.70 64 1012.9
20260510013738 77 316 0.9 0.9 0.00 1.70 1.70 64 1012.9
20260510013538 77 316 0.9 0.9 0.00 1.70 1.70 64 1012.9
20260510013438 77 316 0.9 0.9 0.00 1.70 1.70 64 1012.8
20260510013338 77 316 0.9 0.9 0.00 1.70 1.70 64 1012.8
20260510013238 77 316 0.9 0.9 0.00 1.70 1.70 64 1012.8
20260510013038 77 316 0.9 0.9 0.00 1.70 1.70 64 1012.8
20260510012939 77 316 0.9 0.9 0.00 1.70 1.70 64 1012.8
20260510012838 77 316 0.9 0.9 0.00 1.70 1.70 64 1012.8
20260510012739 77 316 0.9 0.9 0.00 1.70 1.70 64 1012.8
20260510012538 76 316 0.9 0.9 0.00 1.70 1.70 64 1012.8
20260510012438 77 316 0.9 0.9 0.00 1.70 1.70 64 1012.8
20260510012338 76 316 0.9 0.9 0.00 1.70 1.70 64 1012.8
20260510012238 77 316 0.9 0.9 0.00 1.70 1.70 64 1012.8
20260510012038 77 316 0.9 0.9 0.00 1.70 1.70 64 1012.7
20260510011939 77 316 0.9 0.9 0.00 1.70 1.70 64 1012.7
20260510011837 77 316 0.9 0.9 0.00 1.70 1.70 64 1012.6
20260510011736 77 317 0.9 0.9 0.00 1.70 1.70 64 1012.6
20260510011636 77 316 0.9 0.9 0.00 1.70 1.70 64 1012.6
20260510011537 77 316 0.9 0.9 0.00 1.70 1.70 64 1012.5
20260510011437 76 316 0.9 1.7 0.00 1.70 1.70 64 1012.5
20260510011337 77 316 0.9 1.7 0.00 1.70 1.70 64 1012.4
20260510011236 77 316 0.9 1.7 0.00 1.70 1.70 64 1012.4
20260510011036 77 316 0.9 1.7 0.00 1.70 1.70 64 1012.3
20260510010937 77 316 0.9 1.7 0.00 1.70 1.70 64 1012.4
20260510010837 77 316 0.9 1.7 0.00 1.70 1.70 64 1012.4
20260510010737 77 316 0.9 1.7 0.00 1.70 1.70 64 1012.4
20260510010536 77 317 0.9 1.7 0.00 1.70 1.70 64 1012.4
20260510010449 77 316 0.9 1.7 0.00 1.70 1.70 64 1012.4
20260510010336 77 316 0.9 1.7 0.00 1.70 1.70 64 1012.4
20260510010236 77 318 1.7 1.7 0.00 1.70 1.70 64 1012.3
20260510010228 77 304 1.7 2.6 0.00 1.70 1.70 64 1012.3
20260510010037 77 309 0.9 2.6 0.00 1.70 1.70 64 1012.3
20260510005936 77 318 0.9 2.6 0.00 1.70 1.70 64 1012.3
20260510005837 77 312 0.9 2.6 0.00 1.70 1.70 64 1012.3
20260510005736 77 309 1.7 2.6 0.00 1.70 1.70 64 1012.4
20260510005536 77 319 1.7 2.6 0.00 1.70 1.70 64 1012.3
20260510005437 77 316 1.7 2.6 0.00 1.70 1.70 64 1012.3
20260510005336 77 312 1.7 2.6 0.00 1.70 1.70 64 1012.3
20260510005237 77 132 1.7 2.6 0.00 1.70 1.70 64 1012.3
20260510005136 77 315 1.7 1.7 0.00 1.70 1.70 64 1012.2
20260510005037 76 309 1.7 1.7 0.00 1.70 1.70 64 1012.2
20260510004937 77 317 1.7 2.6 0.00 1.70 1.70 64 1012.2
20260510004837 77 331 1.7 2.6 0.00 1.70 1.70 64 1012.1
20260510004737 77 316 1.7 2.6 0.00 1.70 1.70 64 1012.1
20260510004637 77 313 1.7 2.6 0.00 1.70 1.70 64 1012.1
20260510004537 76 135 1.7 2.6 0.00 1.70 1.70 64 1012.0
20260510004437 77 134 1.7 2.6 0.00 1.70 1.70 64 1012.1
20260510004337 77 315 1.7 2.6 0.00 1.70 1.70 64 1012.1
20260510004237 77 131 1.7 2.6 0.00 1.70 1.70 64 1012.1
20260510004037 77 315 1.7 2.6 0.00 1.70 1.70 64 1012.1
20260510003937 77 313 1.7 2.6 0.00 1.70 1.70 64 1012.1
20260510003838 76 324 1.7 2.6 0.00 1.70 1.70 64 1012.1
20260510003737 77 314 1.7 2.6 0.00 1.70 1.70 64 1012.1
20260510003537 76 286 1.7 2.6 0.00 1.70 1.70 64 1012.1
20260510003438 76 83 1.7 2.6 0.00 1.70 1.70 64 1012.1
20260510003337 76 43 1.7 2.6 0.00 1.70 1.70 64 1012.1
20260510003237 77 319 1.7 2.6 0.00 1.70 1.70 64 1012.0
20260510003229 76 18 1.7 2.6 0.00 1.70 1.70 64 1012.0
20260510003037 76 317 1.7 2.6 0.00 1.70 1.70 64 1012.0
20260510002937 77 347 1.7 2.6 0.00 1.70 1.70 64 1011.9
20260510002837 76 136 1.7 1.7 0.00 1.70 1.70 64 1012.0
20260510002723 77 300 1.7 1.7 0.00 1.70 1.70 64 1012.0
20260510002625 77 314 1.7 1.7 0.00 1.70 1.70 64 1012.0
20260510002526 77 315 1.7 1.7 0.00 1.70 1.70 64 1011.9
20260510002426 76 317 1.7 2.6 0.00 1.70 1.70 64 1011.9
20260510002326 76 311 1.7 3.5 0.00 1.70 1.70 64 1011.8
20260510002225 77 324 1.7 3.5 0.00 1.70 1.70 64 1011.8
20260510002025 76 316 1.7 3.5 0.00 1.70 1.70 64 1011.7
20260510001925 77 315 1.7 3.5 0.00 1.70 1.70 64 1011.7
20260510001826 76 317 1.7 3.5 0.00 1.70 1.70 64 1011.7
20260510001727 76 318 1.7 3.5 0.00 1.70 1.70 64 1011.7
20260510001628 77 316 1.7 3.5 0.00 1.70 1.70 64 1011.7
20260510001527 76 324 1.7 3.5 0.00 1.70 1.70 64 1011.7
20260510001426 77 303 1.7 3.5 0.00 1.70 1.70 64 1011.7
20260510001326 77 335 1.7 3.5 0.00 1.70 1.70 64 1011.6
20260510001226 76 318 1.7 3.5 0.00 1.70 1.70 64 1011.6
20260510001026 76 317 1.7 3.5 0.00 1.70 1.70 64 1011.7
20260510000926 77 138 1.7 3.5 0.00 1.70 1.70 64 1011.7
20260510000826 76 320 0.9 3.5 0.00 1.70 1.70 64 1011.7
20260510000724 76 134 0.9 3.5 0.00 1.70 1.70 64 1011.8
20260510000506 76 309 0.9 1.7 0.00 1.70 1.70 64 1011.8
20260510000411 76 316 0.9 1.7 0.00 1.70 1.70 64 1011.8
20260510000311 76 316 0.9 1.7 0.00 1.70 1.70 64 1011.8
20260510000211 77 316 0.9 1.7 0.00 1.70 1.70 64 1011.9
20260510000009 76 316 0.9 1.7 0.00 1.70 1.70 64 1011.9
20260509235910 77 316 0.9 1.7 0.00 1.70 1.70 64 1011.9
20260509235809 76 315 0.9 1.7 0.00 1.70 1.70 64 1011.8
20260509235712 76 315 0.9 1.7 0.00 1.70 1.70 64 1011.8
20260509235510 77 316 0.9 1.7 0.00 1.70 1.70 64 1011.9
20260509235409 76 315 0.9 1.7 0.00 1.70 1.70 64 1011.9
20260509235311 77 315 0.9 0.9 0.00 1.70 1.70 64 1011.9
20260509235210 77 315 0.9 0.9 0.00 1.70 1.70 64 1011.8
20260509235009 76 315 0.9 1.7 0.00 1.70 1.70 64 1011.7
20260509234910 76 316 0.9 1.7 0.00 1.70 1.70 64 1011.7
20260509234810 77 316 0.9 1.7 0.00 1.70 1.70 64 1011.6
20260509234721 77 315 0.9 1.7 0.00 1.70 1.70 64 1011.6
20260509234714 77 315 0.9 1.7 0.00 1.70 1.70 64 1011.7
20260509234510 76 316 0.9 1.7 0.00 1.70 1.70 64 1011.7
20260509234410 77 316 0.9 1.7 0.00 1.70 1.70 64 1011.8
20260509234312 76 315 0.9 1.7 0.00 1.70 1.70 64 1011.8
20260509234220 76 315 0.9 1.7 0.00 1.70 1.70 64 1011.8
20260509234010 76 316 0.9 1.7 0.00 1.70 1.70 63 1011.8
20260509233940 76 316 0.9 0.9 0.00 1.70 1.70 64 1011.8
20260509233810 76 316 0.9 0.9 0.00 1.70 1.70 63 1011.8
20260509233721 77 316 0.9 0.9 0.00 1.70 1.70 64 1011.8
20260509233714 76 316 0.9 0.9 0.00 1.70 1.70 64 1011.8
20260509233510 76 316 0.9 0.9 0.00 1.70 1.70 64 1011.9
20260509233409 77 316 0.9 0.9 0.00 1.70 1.70 64 1011.9
20260509233311 76 316 0.9 0.9 0.00 1.70 1.70 64 1011.9
20260509233210 76 316 0.9 1.7 0.00 1.70 1.70 64 1011.9
20260509233010 76 316 1.7 26.9 0.00 1.70 1.70 64 1011.9
20260509232910 76 316 1.7 26.9 0.00 1.70 1.70 64 1011.9
20260509232810 76 316 3.5 31.3 0.00 1.70 1.70 64 1011.9
20260509232710 76 316 6.1 31.3 0.00 1.70 1.70 64 1012.0
20260509232504 77 316 9.6 31.3 0.00 1.70 1.70 64 1012.0
20260509232404 76 316 11.3 31.3 0.00 1.70 1.70 64 1012.0
20260509232306 76 316 12.2 31.3 0.00 1.70 1.70 64 1012.0
20260509232205 76 295 14.8 31.3 0.00 1.70 1.70 64 1011.9
20260509232004 76 316 18.2 31.3 0.00 1.70 1.70 63 1011.8
20260509231905 76 316 20.9 31.3 0.00 1.70 1.70 63 1011.8
20260509231804 77 104 20.9 31.3 0.00 1.70 1.70 63 1011.7
20260509231704 76 103 21.7 31.3 0.00 1.70 1.70 63 1011.7
20260509231505 77 98 21.7 31.3 0.00 1.70 1.70 63 1011.8
20260509231404 76 327 22.6 31.3 0.00 1.70 1.70 64 1011.8
20260509231304 77 87 23.5 31.3 0.00 1.70 1.70 64 1011.8
20260509231215 76 98 23.5 31.3 0.00 1.70 1.70 64 1011.7
20260509231208 76 98 23.5 31.3 0.00 1.70 1.70 63 1011.7
20260509231004 76 98 23.5 31.3 0.00 1.70 1.70 64 1011.7
20260509230904 77 99 22.6 30.4 0.00 1.70 1.70 64 1011.6
20260509230804 76 101 22.6 30.4 0.00 1.70 1.70 63 1011.6
20260509230704 76 98 22.6 30.4 0.00 1.71 1.70 64 1011.6
20260509230504 76 99 22.6 31.3 0.01 1.71 1.70 63 1011.7
20260509230404 76 96 22.6 31.3 0.01 1.73 1.70 64 1011.8
20260509230304 76 99 22.6 31.3 0.01 1.74 1.70 63 1011.8
20260509230205 77 98 22.6 31.3 0.01 1.75 1.70 63 1011.8
20260509230005 77 99 23.5 31.3 0.01 1.78 1.70 63 1011.9
20260509225904 76 99 24.3 31.3 0.01 1.79 1.70 63 1012.0
20260509225805 77 99 24.3 31.3 0.01 1.79 1.70 63 1012.0
20260509225704 76 98 24.3 31.3 0.01 1.80 1.70 63 1012.1
20260509225504 76 99 26.1 31.3 0.01 1.80 1.70 63 1012.1
20260509225404 76 97 26.1 28.7 0.00 1.80 1.70 63 1012.1
20260509225306 76 89 26.1 28.7 0.00 1.80 1.70 63 1012.1
20260509225204 76 88 26.1 28.7 0.01 1.80 1.70 63 1012.1
20260509225005 76 85 26.1 28.7 0.01 1.83 1.70 63 1012.3
20260509224904 76 88 26.1 28.7 0.01 1.84 1.70 63 1012.3
20260509224804 76 78 26.1 28.7 0.01 1.84 1.70 63 1012.3
20260509224712 77 71 26.1 28.7 0.01 1.85 1.70 63 1012.3
20260509224705 76 79 26.1 29.5 0.01 1.85 1.70 63 1012.3
20260509224502 76 80 25.2 29.5 0.01 1.87 1.70 63 1012.3
20260509224402 77 79 25.2 29.5 0.01 1.90 1.70 63 1012.3
20260509224301 77 87 24.3 29.5 0.01 1.92 1.70 63 1012.3
20260509224158 77 66 24.3 29.5 0.01 1.94 1.70 63 1012.2
20260509223956 77 70 24.3 29.5 0.02 1.95 1.70 63 1012.2
20260509223855 76 57 23.5 29.5 0.02 1.95 1.70 63 1012.4
20260509223756 76 81 23.5 29.5 0.02 1.96 1.70 63 1012.5
20260509223655 76 40 23.5 29.5 0.02 1.96 1.70 63 1012.5
20260509223455 76 30 23.5 27.8 0.02 1.96 1.70 63 1012.4
20260509223355 77 45 23.5 27.8 0.02 1.98 1.70 63 1012.3
20260509223258 77 20 22.6 27.8 0.02 1.98 1.70 63 1012.2
20260509223155 77 5 20.9 27.8 0.02 1.99 1.70 63 1012.2
20260509222956 77 12 17.4 27.8 0.02 2.01 1.70 63 1012.2
20260509222856 77 14 15.6 27.8 0.03 2.02 1.70 63 1012.1
20260509222756 76 356 13.0 26.9 0.03 2.02 1.70 63 1012.1
20260509222657 76 96 11.3 26.9 0.04 2.02 1.70 63 1012.1
20260509222456 76 7 7.8 26.9 0.04 2.02 1.70 64 1012.0
20260509222356 76 332 5.2 26.9 0.04 2.02 1.70 63 1012.0
20260509222257 77 317 3.5 14.8 0.04 2.02 1.70 63 1012.0
20260509222156 77 318 2.6 14.8 0.04 2.02 1.70 63 1011.9
20260509221956 76 317 2.6 14.8 0.05 2.02 1.70 63 1011.9
20260509221856 77 316 2.6 14.8 0.05 2.02 1.70 63 1011.8
20260509221756 76 316 2.6 14.8 0.05 2.02 1.70 63 1011.8
20260509221656 76 317 2.6 14.8 0.05 2.02 1.70 63 1011.9
20260509221457 76 316 2.6 2.6 0.06 2.02 1.70 63 1011.9
20260509221356 76 317 2.6 16.5 0.06 2.02 1.70 63 1011.9
20260509221257 76 317 2.6 16.5 0.06 2.02 1.70 63 1011.9
20260509221156 76 316 2.6 16.5 0.06 2.03 1.70 63 1011.8
20260509220956 76 316 2.6 16.5 0.07 2.04 1.70 63 1011.8
20260509220843 76 317 2.6 16.5 0.07 2.04 1.70 63 1011.7
20260509220742 76 316 2.6 16.5 0.07 2.04 1.70 63 1011.6
20260509220643 77 316 2.6 16.5 0.07 2.04 1.70 63 1011.6
20260509220543 76 316 2.6 16.5 0.06 2.04 1.70 63 1011.6
20260509220442 76 78 2.6 16.5 0.06 2.04 1.70 63 1011.6
20260509220427 77 316 2.6 3.5 0.06 2.04 1.70 63 1011.6
20260509220240 76 316 2.6 3.5 0.06 2.04 1.70 63 1011.6
20260509220201 77 316 2.6 3.5 0.06 2.04 1.70 63 1011.6
20260509220040 77 316 2.6 3.5 0.06 2.04 1.70 63 1011.5
20260509215940 76 317 2.6 3.5 0.06 2.04 1.70 63 1011.5
20260509215839 77 317 2.6 3.5 0.06 2.04 1.70 63 1011.5
20260509215740 77 316 2.6 3.5 0.07 2.04 1.70 63 1011.5
20260509215639 76 316 2.6 3.5 0.07 2.04 1.70 63 1011.6
20260509215539 77 317 2.6 3.5 0.07 2.04 1.70 63 1011.6
20260509215439 76 317 2.6 3.5 0.07 2.04 1.70 63 1011.6
20260509215339 76 316 2.6 3.5 0.07 2.04 1.70 63 1011.6
20260509215240 76 317 2.6 3.5 0.07 2.04 1.70 63 1011.7
20260509215140 76 316 2.6 3.5 0.06 2.04 1.69 63 1011.7
20260509215039 76 317 2.6 3.5 0.06 2.04 1.69 63 1011.7
20260509214940 77 317 2.6 3.5 0.06 2.04 1.69 63 1011.7
20260509214840 77 316 1.7 2.6 0.06 2.04 1.69 63 1011.7
20260509214740 76 315 1.7 2.6 0.06 2.04 1.69 63 1011.8
20260509214639 77 316 1.7 2.6 0.06 2.04 1.69 63 1011.8
20260509214539 76 317 1.7 2.6 0.06 2.04 1.69 63 1011.8
20260509214440 76 317 2.6 2.6 0.06 2.04 1.69 63 1011.8
20260509214339 77 317 1.7 2.6 0.06 2.03 1.69 63 1011.8
20260509214239 76 316 2.6 3.5 0.06 2.03 1.69 63 1011.8
20260509214201 76 316 2.6 3.5 0.06 2.03 1.69 63 1011.7
20260509214040 77 316 2.6 3.5 0.06 2.03 1.69 63 1011.7
20260509213940 76 317 2.6 3.5 0.06 2.03 1.69 63 1011.7
20260509213838 77 318 2.6 3.5 0.06 2.03 1.69 63 1011.8
20260509213736 76 317 1.7 3.5 0.06 2.03 1.69 63 1011.9
20260509213638 76 316 1.7 3.5 0.06 2.03 1.69 63 1011.9
20260509213538 76 317 1.7 3.5 0.06 2.03 1.69 63 1011.9
20260509213438 77 317 1.7 3.5 0.05 2.02 1.68 63 1011.8
20260509213338 77 316 1.7 3.5 0.05 2.02 1.68 63 1011.8
20260509213238 76 316 1.7 3.5 0.05 2.02 1.68 63 1011.8
20260509213138 76 317 1.7 3.5 0.05 2.02 1.68 63 1011.8
20260509213038 76 317 1.7 3.5 0.05 2.02 1.68 63 1011.8
20260509212938 76 317 1.7 3.5 0.04 2.02 1.67 63 1011.9
20260509212838 76 317 1.7 3.5 0.04 2.01 1.67 63 1011.8
20260509212738 77 317 2.6 3.5 0.04 2.01 1.67 63 1011.9
20260509212651 76 317 2.6 2.6 0.04 2.01 1.67 63 1012.0
20260509212539 76 316 2.6 3.5 0.03 2.00 1.66 63 1012.0
20260509212438 76 317 2.6 3.5 0.03 2.00 1.66 63 1012.0
20260509212338 76 316 2.6 3.5 0.03 2.00 1.66 63 1012.1
20260509212238 76 316 2.6 3.5 0.03 2.00 1.66 63 1012.1
20260509212138 76 317 2.6 3.5 0.03 2.00 1.66 63 1012.1
20260509212038 76 316 2.6 3.5 0.03 2.00 1.65 63 1012.2
20260509211938 76 316 2.6 3.5 0.03 2.00 1.65 63 1012.3
20260509211838 76 318 2.6 3.5 0.02 1.99 1.65 63 1012.3
20260509211738 76 316 2.6 3.5 0.02 1.99 1.65 63 1012.3
20260509211638 76 317 2.6 3.5 0.02 1.99 1.65 63 1012.3
20260509211538 76 316 2.6 3.5 0.02 1.99 1.65 63 1012.3
20260509211438 76 316 2.6 3.5 0.02 1.98 1.64 63 1012.3
20260509211338 77 316 2.6 3.5 0.01 1.98 1.64 63 1012.3
20260509211239 76 317 2.6 3.5 0.01 1.98 1.64 63 1012.4
20260509211138 76 317 2.6 3.5 0.01 1.98 1.64 63 1012.4
20260509211039 76 317 2.6 3.5 0.01 1.98 1.63 63 1012.4
20260509210938 76 317 2.6 3.5 0.01 1.98 1.63 63 1012.4
20260509210838 76 316 2.6 2.6 0.01 1.98 1.63 63 1012.3
20260509210738 76 317 2.6 3.5 0.01 1.98 1.63 63 1012.2
20260509210639 76 317 2.6 3.5 0.01 1.98 1.63 63 1012.1
20260509210539 76 317 2.6 3.5 0.01 1.98 1.63 63 1012.1
20260509210438 76 316 2.6 3.5 0.01 1.98 1.63 63 1012.0
20260509210238 76 317 1.7 3.5 0.01 1.98 1.63 63 1012.0
20260509210138 76 317 1.7 3.5 0.01 1.98 1.63 63 1012.0
20260509210038 76 316 1.7 3.5 0.01 1.98 1.63 63 1011.9
20260509205939 76 315 2.6 3.5 0.01 1.98 1.63 63 1011.9
20260509205839 76 316 2.6 3.5 0.01 1.97 1.63 63 1011.9
20260509205739 76 316 1.7 2.6 0.01 1.97 1.63 63 1011.9
20260509205638 76 316 1.7 2.6 0.01 1.97 1.63 63 1011.9
20260509205539 76 317 2.6 2.6 0.01 1.97 1.63 63 1011.9
20260509205338 76 317 2.6 2.6 0.01 1.97 1.63 63 1011.8
20260509205228 76 317 2.6 2.6 0.01 1.97 1.63 63 1011.7
20260509205128 76 317 2.6 2.6 0.01 1.97 1.63 63 1011.7
20260509205029 76 317 2.6 2.6 0.01 1.97 1.63 63 1011.7
20260509204928 76 317 2.6 2.6 0.01 1.97 1.63 63 1011.6
20260509204828 76 316 2.6 2.6 0.01 1.97 1.63 63 1011.6
20260509204728 76 316 2.6 2.6 0.01 1.97 1.63 63 1011.6
20260509204629 76 316 2.6 2.6 0.01 1.97 1.63 63 1011.7
20260509204528 76 316 1.7 2.6 0.01 1.97 1.63 63 1011.6
20260509204428 76 316 1.7 2.6 0.01 1.97 1.63 63 1011.6
20260509204328 76 316 1.7 2.6 0.02 1.97 1.63 63 1011.6
20260509204228 76 316 1.7 2.6 0.02 1.97 1.63 63 1011.6
20260509204128 76 316 1.7 3.5 0.02 1.97 1.63 63 1011.6
20260509204029 76 317 2.6 3.5 0.02 1.97 1.63 63 1011.6
20260509203928 76 317 2.6 3.5 0.02 1.97 1.63 63 1011.6
20260509203828 76 317 2.6 3.5 0.02 1.97 1.63 63 1011.6
20260509203729 76 316 2.6 3.5 0.03 1.97 1.63 63 1011.5
20260509203628 76 133 2.6 3.5 0.03 1.97 1.63 63 1011.4
20260509203529 76 317 2.6 3.5 0.03 1.97 1.63 63 1011.4
20260509203428 76 317 2.6 3.5 0.03 1.98 1.63 63 1011.4
20260509203329 76 317 2.6 3.5 0.03 1.98 1.63 63 1011.4
20260509203228 76 317 2.6 3.5 0.03 1.98 1.63 63 1011.5
20260509203128 76 316 2.6 3.5 0.03 1.99 1.63 63 1011.4
20260509203029 77 316 2.6 3.5 0.04 2.00 1.63 63 1011.4
20260509202928 76 316 2.6 3.5 0.04 2.03 1.63 63 1011.3
20260509202829 76 315 2.6 3.5 0.04 2.07 1.63 63 1011.3
20260509202728 76 316 2.6 3.5 0.04 2.12 1.63 63 1011.2
20260509202628 76 317 2.6 3.5 0.04 2.15 1.63 63 1011.2
20260509202529 76 317 2.6 3.5 0.04 2.16 1.63 63 1011.2
20260509202428 76 317 2.6 3.5 0.04 2.16 1.63 63 1011.3
20260509202328 76 317 2.6 3.5 0.04 2.16 1.63 63 1011.3
20260509202229 76 316 2.6 3.5 0.05 2.16 1.63 63 1011.4
20260509202127 76 130 2.6 3.5 0.04 2.15 1.63 63 1011.4
20260509202026 76 133 2.6 3.5 0.04 2.15 1.63 63 1011.4
20260509201926 76 317 2.6 3.5 0.04 2.15 1.63 63 1011.4
20260509201826 76 316 1.7 3.5 0.04 2.15 1.63 63 1011.4
20260509201713 76 316 2.6 3.5 0.05 2.15 1.63 63 1011.4
20260509201645 76 317 2.6 3.5 0.05 2.15 1.63 63 1011.3
20260509201457 76 317 1.7 3.5 0.05 2.15 1.63 63 1011.3
20260509201358 76 316 1.7 3.5 0.05 2.15 1.63 63 1011.4
20260509201258 76 316 1.7 3.5 0.05 2.15 1.63 63 1011.4
20260509201158 76 317 1.7 3.5 0.05 2.16 1.63 63 1011.5
20260509201057 76 317 1.7 3.5 0.05 2.16 1.63 63 1011.5
20260509200958 76 317 2.6 3.5 0.05 2.15 1.62 63 1011.6
20260509200858 76 316 1.7 3.5 0.05 2.15 1.62 63 1011.6
20260509200758 76 316 2.6 3.5 0.05 2.15 1.62 63 1011.6
20260509200658 76 330 1.7 3.5 0.05 2.15 1.62 63 1011.6
20260509200558 76 324 1.7 3.5 0.05 2.16 1.62 63 1011.7
20260509200459 76 101 1.7 3.5 0.06 2.16 1.62 63 1011.7
20260509200358 76 317 1.7 3.5 0.06 2.16 1.62 63 1011.7
20260509200258 76 69 1.7 3.5 0.06 2.17 1.62 63 1011.7
20260509200157 76 317 1.7 3.5 0.06 2.17 1.62 63 1011.7
20260509200058 76 69 1.7 3.5 0.06 2.17 1.62 63 1011.8
20260509195957 76 317 1.7 2.6 0.06 2.18 1.62 63 1011.8
20260509195858 76 66 1.7 2.6 0.06 2.19 1.62 63 1011.8
20260509195757 76 318 1.7 3.5 0.06 2.20 1.62 63 1011.9
20260509195658 76 76 1.7 3.5 0.06 2.21 1.62 63 1011.9
20260509195557 76 73 1.7 3.5 0.07 2.24 1.62 63 1012.0
20260509195458 76 317 1.7 3.5 0.07 2.25 1.62 63 1012.0
20260509195358 76 317 2.6 3.5 0.07 2.25 1.62 63 1012.0
20260509195259 76 318 2.6 3.5 0.07 2.26 1.62 63 1012.0
20260509195157 76 316 2.6 3.5 0.07 2.26 1.62 63 1012.0
20260509195135 76 317 2.6 4.3 0.07 2.27 1.62 63 1011.9
20260509194958 76 317 2.6 4.3 0.08 2.28 1.62 63 1012.0
20260509194858 76 317 2.6 4.3 0.08 2.29 1.62 63 1011.9
20260509194758 76 317 2.6 4.3 0.09 2.31 1.62 63 1012.0
20260509194659 76 311 2.6 4.3 0.09 2.35 1.62 63 1012.0
20260509194558 76 317 2.6 4.3 0.10 2.37 1.62 63 1012.1
20260509194457 76 312 2.6 4.3 0.10 2.39 1.62 63 1012.1
20260509194359 76 317 1.7 4.3 0.10 2.41 1.62 63 1012.1
20260509194259 76 311 1.7 4.3 0.11 2.43 1.61 63 1012.2
20260509194159 76 319 1.7 4.3 0.11 2.45 1.61 63 1012.3
20260509194058 76 315 1.7 4.3 0.11 2.48 1.61 63 1012.3
20260509193958 76 317 1.7 3.5 0.12 2.50 1.61 63 1012.4
20260509193858 76 314 1.7 3.5 0.12 2.52 1.61 63 1012.4
20260509193758 76 166 1.7 3.5 0.12 2.56 1.61 63 1012.5
20260509193658 76 331 1.7 2.6 0.14 2.60 1.60 63 1012.6
20260509193559 76 297 1.7 2.6 0.14 2.65 1.60 63 1012.7
20260509193459 76 301 1.7 2.6 0.15 2.69 1.60 63 1012.7
20260509193358 76 314 1.7 2.6 0.16 2.72 1.60 63 1012.7
20260509193259 76 321 1.7 2.6 0.17 2.79 1.60 63 1012.8
20260509193158 76 304 1.7 3.5 0.18 2.86 1.60 63 1012.7
20260509193059 76 329 1.7 3.5 0.19 2.94 1.60 63 1012.8
20260509192958 76 306 1.7 3.5 0.20 3.00 1.59 63 1012.8
20260509192859 76 329 1.7 3.5 0.20 3.04 1.59 63 1012.8
20260509192758 76 333 1.7 3.5 0.20 3.08 1.59 63 1012.9
20260509192658 76 322 1.7 4.3 0.20 3.12 1.59 63 1013.0
20260509192559 76 319 1.7 4.3 0.20 3.17 1.59 63 1013.0
20260509192458 76 332 1.7 4.3 0.21 3.21 1.59 63 1013.0
20260509192359 76 320 1.7 4.3 0.21 3.25 1.59 63 1013.0
20260509192258 76 309 1.7 4.3 0.22 3.35 1.59 63 1013.0
20260509192143 76 331 1.7 4.3 0.21 3.36 1.58 63 1013.1
20260509192042 76 315 2.6 4.3 0.22 3.36 1.58 63 1013.1
20260509191941 76 321 2.6 4.3 0.22 3.36 1.58 63 1013.1
20260509191842 76 322 2.6 4.3 0.22 3.36 1.58 63 1013.2
20260509191742 76 320 2.6 4.3 0.23 3.36 1.58 63 1013.1
20260509191631 76 309 1.7 4.3 0.23 3.36 1.58 63 1013.1
20260509191532 76 320 1.7 5.2 0.23 3.36 1.58 63 1013.1
20260509191432 76 316 2.6 5.2 0.24 3.36 1.58 63 1013.0
20260509191332 76 285 2.6 5.2 0.24 3.36 1.58 63 1012.9
20260509191233 76 313 2.6 5.2 0.24 3.35 1.57 63 1012.8
20260509191132 76 282 2.6 5.2 0.24 3.35 1.57 63 1012.8
20260509191031 76 313 2.6 5.2 0.24 3.35 1.57 63 1012.8
20260509190932 76 147 2.6 5.2 0.24 3.35 1.57 63 1012.9
20260509190831 76 137 2.6 5.2 0.24 3.35 1.57 63 1013.0
20260509190732 76 320 2.6 5.2 0.24 3.35 1.57 63 1012.9
20260509190631 76 194 3.5 5.2 0.24 3.35 1.57 63 1012.9
20260509190531 76 296 3.5 5.2 0.24 3.35 1.57 63 1013.0
20260509190431 76 324 3.5 5.2 0.24 3.35 1.57 63 1013.1
20260509190332 76 311 3.5 5.2 0.24 3.35 1.57 63 1013.1
20260509190234 76 176 2.6 5.2 0.24 3.34 1.56 63 1013.0
20260509190132 76 315 2.6 5.2 0.24 3.34 1.56 63 1013.0
20260509190032 76 316 2.6 5.2 0.25 3.34 1.56 63 1012.9
20260509185932 76 309 2.6 5.2 0.25 3.34 1.56 63 1012.8
20260509185831 76 287 2.6 5.2 0.25 3.34 1.56 63 1012.8
20260509185732 76 329 2.6 5.2 0.26 3.34 1.56 63 1012.7
20260509185631 76 320 2.6 5.2 0.26 3.33 1.56 63 1012.8
20260509185618 76 296 2.6 5.2 0.26 3.33 1.56 63 1012.8
20260509185431 76 251 2.6 5.2 0.26 3.33 1.56 63 1012.9
20260509185332 76 318 2.6 5.2 0.26 3.33 1.55 63 1013.0
20260509185234 76 327 2.6 5.2 0.27 3.33 1.55 63 1013.0
20260509185132 76 300 3.5 5.2 0.26 3.33 1.55 63 1013.1
20260509185033 76 329 3.5 5.2 0.26 3.32 1.54 63 1013.0
20260509184932 76 314 3.5 5.2 0.26 3.31 1.54 63 1013.0
20260509184832 76 322 3.5 5.2 0.24 3.30 1.53 63 1013.1
20260509184732 76 338 3.5 5.2 0.25 3.30 1.52 63 1013.0
20260509184631 76 325 2.6 5.2 0.24 3.30 1.52 63 1013.0
20260509184618 76 320 2.6 4.3 0.24 3.30 1.52 63 1012.9
20260509184431 76 319 2.6 4.3 0.24 3.30 1.52 63 1012.8
20260509184332 76 322 2.6 4.3 0.23 3.29 1.51 63 1012.8
20260509184234 76 328 2.6 4.3 0.23 3.28 1.50 63 1012.8
20260509184132 76 317 2.6 5.2 0.22 3.28 1.50 63 1012.9
20260509184032 76 324 2.6 8.7 0.21 3.27 1.49 63 1012.8
20260509183931 76 317 2.6 9.6 0.21 3.27 1.49 63 1012.9
20260509183832 76 321 3.5 9.6 0.21 3.26 1.48 63 1013.0
20260509183732 76 167 3.5 9.6 0.19 3.24 1.47 63 1013.1
20260509183632 76 102 3.5 9.6 0.19 3.24 1.46 63 1013.1
20260509183532 76 116 3.5 9.6 0.17 3.22 1.44 63 1013.1
20260509183432 76 138 4.3 9.6 0.17 3.22 1.44 63 1013.2
20260509183332 76 325 4.3 9.6 0.16 3.21 1.43 63 1013.3
20260509183234 76 317 5.2 9.6 0.15 3.20 1.42 63 1013.5
20260509183132 76 325 5.2 9.6 0.14 3.19 1.41 63 1013.5
20260509183118 76 204 5.2 9.6 0.13 3.18 1.40 63 1013.6
20260509182932 76 208 5.2 9.6 0.13 3.18 1.40 63 1013.6
20260509182832 76 197 5.2 9.6 0.13 3.17 1.39 63 1013.5
20260509182732 76 193 5.2 8.7 0.13 3.17 1.39 63 1013.5
20260509182632 76 200 4.3 9.6 0.12 3.17 1.39 63 1013.5
20260509182618 76 166 4.3 9.6 0.11 3.16 1.38 63 1013.4
20260509182432 76 181 4.3 9.6 0.11 3.15 1.37 63 1013.4
20260509182332 76 244 4.3 9.6 0.11 3.15 1.37 63 1013.3
20260509182233 76 246 4.3 9.6 0.11 3.15 1.37 63 1013.2
20260509182133 76 188 4.3 9.6 0.10 3.15 1.37 63 1013.1
20260509182032 76 209 3.5 9.6 0.10 3.14 1.36 63 1013.0
20260509181933 76 275 3.5 9.6 0.09 3.14 1.36 63 1013.0
20260509181832 76 256 3.5 9.6 0.09 3.13 1.35 63 1012.9
20260509181732 76 319 3.5 9.6 0.09 3.13 1.35 63 1012.8
20260509181632 76 314 3.5 9.6 0.09 3.13 1.35 63 1012.7
20260509181532 76 278 3.5 7.0 0.09 3.13 1.35 63 1012.7
20260509181432 76 278 3.5 7.0 0.08 3.12 1.34 63 1012.6
20260509181332 76 197 2.6 6.1 0.08 3.12 1.34 63 1012.7
20260509181234 76 318 2.6 4.3 0.08 3.12 1.34 63 1012.8
20260509181129 76 170 2.6 4.3 0.08 3.11 1.33 63 1012.9
20260509181119 76 22 2.6 3.5 0.08 3.11 1.33 63 1013.0
20260509180929 76 35 2.6 3.5 0.08 3.11 1.33 63 1013.1
20260509180829 76 65 2.6 3.5 0.08 3.11 1.33 63 1013.1
20260509180729 76 43 2.6 3.5 0.08 3.11 1.33 63 1013.1
20260509180629 76 57 2.6 3.5 0.08 3.11 1.33 63 1013.1
20260509180529 76 63 2.6 4.3 0.08 3.10 1.32 63 1012.9
20260509180429 76 337 2.6 4.3 0.08 3.10 1.32 63 1012.9
20260509180328 76 83 2.6 4.3 0.08 3.10 1.32 63 1012.7
20260509180230 76 328 2.6 4.3 0.08 3.10 1.32 63 1012.6
20260509180129 76 63 2.6 4.3 0.08 3.10 1.32 63 1012.4
20260509175929 76 32 2.6 8.7 0.07 3.09 1.31 63 1012.2
20260509175830 76 42 2.6 8.7 0.07 3.09 1.31 63 1012.2
20260509175729 76 55 2.6 8.7 0.06 3.08 1.30 63 1012.4
20260509175629 76 29 2.6 8.7 0.06 3.08 1.30 63 1012.6
20260509175520 76 15 2.6 8.7 0.06 3.07 1.30 63 1012.8
20260509175420 76 326 2.6 8.7 0.06 3.07 1.29 63 1012.9
20260509175320 76 130 2.6 8.7 0.05 3.07 1.29 63 1013.0
20260509175222 76 321 2.6 8.7 0.05 3.06 1.28 63 1013.0
20260509175120 76 311 2.6 8.7 0.05 3.06 1.28 63 1013.0
20260509175021 76 129 3.5 8.7 0.04 3.06 1.28 63 1013.0
20260509174920 76 340 3.5 7.0 0.04 3.06 1.28 63 1013.0
20260509174820 76 332 3.5 7.0 0.04 3.06 1.28 63 1013.0
20260509174720 76 331 3.5 7.0 0.04 3.06 1.28 63 1013.1
20260509174621 76 337 3.5 8.7 0.04 3.06 1.28 63 1013.1
20260509174520 76 133 3.5 8.7 0.04 3.06 1.28 63 1013.1
20260509174421 76 129 3.5 8.7 0.04 3.06 1.28 63 1013.1
20260509174321 76 313 3.5 8.7 0.04 3.06 1.28 63 1013.1
20260509174222 76 136 3.5 8.7 0.04 3.06 1.28 63 1013.1
20260509174121 76 336 3.5 8.7 0.05 3.06 1.28 63 1013.1
20260509174020 76 308 3.5 8.7 0.05 3.06 1.28 63 1013.0
20260509173921 76 311 3.5 8.7 0.05 3.06 1.28 63 1012.9
20260509173820 76 290 3.5 8.7 0.06 3.06 1.28 63 1012.9
20260509173721 76 147 3.5 8.7 0.06 3.06 1.28 63 1013.0
20260509173620 76 139 3.5 8.7 0.06 3.06 1.28 63 1012.9
20260509173521 76 142 3.5 7.0 0.06 3.06 1.28 63 1012.8
20260509173421 76 144 3.5 7.0 0.06 3.05 1.27 63 1012.8
20260509173315 76 187 2.6 7.0 0.06 3.05 1.27 63 1012.7
20260509173220 76 136 2.6 7.0 0.06 3.05 1.27 63 1012.6
20260509173114 76 25 2.6 5.2 0.06 3.05 1.27 63 1012.6
20260509173107 76 321 2.6 5.2 0.06 3.05 1.27 63 1012.7
20260509172915 76 93 2.6 5.2 0.06 3.05 1.27 63 1012.8
20260509172814 76 136 2.6 5.2 0.06 3.05 1.27 63 1012.9
20260509172716 76 124 2.6 3.5 0.06 3.05 1.27 63 1013.0
20260509172615 76 166 2.6 3.5 0.06 3.05 1.27 63 1013.0
20260509172515 76 232 2.6 3.5 0.06 3.05 1.27 63 1013.0
20260509172414 76 338 2.6 3.5 0.05 3.04 1.26 63 1013.1
20260509172315 76 356 2.6 3.5 0.05 3.04 1.26 63 1013.1
20260509172219 76 314 2.6 3.5 0.05 3.04 1.26 63 1013.2
20260509172114 76 152 2.6 3.5 0.05 3.04 1.26 63 1013.2
20260509172015 76 321 2.6 3.5 0.06 3.04 1.26 63 1013.2
20260509171915 76 325 2.6 3.5 0.06 3.04 1.26 63 1013.2
20260509171815 76 348 2.6 3.5 0.06 3.04 1.26 63 1013.3
20260509171715 76 324 2.6 3.5 0.06 3.04 1.26 63 1013.3
20260509171614 76 345 2.6 3.5 0.06 3.04 1.26 63 1013.2
20260509171515 76 333 2.6 3.5 0.07 3.04 1.26 63 1013.2
20260509171415 76 325 2.6 3.5 0.08 3.04 1.26 63 1013.1
20260509171315 76 313 2.6 3.5 0.08 3.04 1.26 63 1012.9
20260509171221 76 308 2.6 3.5 0.08 3.04 1.26 63 1012.7
20260509171115 76 128 2.6 3.5 0.08 3.04 1.26 63 1012.4
20260509171015 76 314 2.6 3.5 0.08 3.04 1.26 63 1012.1
20260509170915 76 132 2.6 3.5 0.08 3.03 1.25 63 1011.9
20260509170816 76 128 2.6 3.5 0.09 3.03 1.25 63 1011.8
20260509170715 76 318 2.6 3.5 0.10 3.03 1.25 63 1011.9
20260509170615 76 322 2.6 3.5 0.11 3.02 1.24 63 1012.1
20260509170515 76 315 2.6 3.5 0.11 3.02 1.24 63 1012.3
20260509170418 76 315 2.6 3.5 0.11 3.02 1.24 63 1012.4
20260509170315 76 309 2.6 3.5 0.11 3.02 1.24 63 1012.5
20260509170217 76 130 2.6 3.5 0.11 3.02 1.24 63 1012.7
20260509170115 76 320 2.6 3.5 0.11 3.02 1.24 63 1012.8
20260509170016 76 314 2.6 3.5 0.11 3.02 1.24 63 1012.8
20260509165915 76 314 2.6 3.5 0.11 3.02 1.24 63 1012.8
20260509165815 76 316 2.6 3.5 0.13 3.02 1.24 63 1012.8
20260509165715 76 316 2.6 3.5 0.14 3.02 1.24 63 1012.8
20260509165615 76 54 2.6 3.5 0.16 3.02 1.24 63 1012.8
20260509165516 76 148 2.6 3.5 0.20 3.02 1.24 63 1012.9
20260509165416 76 312 2.6 3.5 0.23 3.02 1.24 63 1013.0
20260509165315 76 333 2.6 3.5 0.24 3.02 1.24 63 1012.9
20260509165221 76 334 2.6 3.5 0.24 3.02 1.24 63 1012.9
20260509165115 76 340 2.6 3.5 0.25 3.02 1.24 63 1013.0
20260509165015 76 309 2.6 3.5 0.26 3.02 1.24 63 1013.0
20260509164915 76 293 2.6 3.5 0.26 3.02 1.24 63 1013.1
20260509164815 76 327 2.6 3.5 0.27 3.02 1.24 63 1013.1
20260509164715 76 336 2.6 3.5 0.27 3.02 1.24 63 1013.1
20260509164616 76 324 2.6 3.5 0.27 3.02 1.24 63 1013.1
20260509164515 76 135 2.6 3.5 0.28 3.02 1.24 63 1013.1
20260509164416 76 316 2.6 3.5 0.28 3.02 1.24 63 1013.1
20260509164315 76 302 2.6 4.3 0.29 3.01 1.23 62 1013.0
20260509164219 76 141 2.6 4.3 0.30 3.01 1.23 62 1013.0
20260509164115 76 136 3.5 4.3 0.29 3.01 1.23 63 1013.0
20260509164015 76 317 3.5 4.3 0.30 3.01 1.23 63 1013.1
20260509163915 76 325 3.5 4.3 0.30 3.00 1.22 63 1013.2
20260509163816 76 313 3.5 4.3 0.30 3.00 1.22 63 1013.3
20260509163715 76 134 3.5 4.3 0.29 3.00 1.22 62 1013.4
20260509163615 76 321 3.5 4.3 0.29 3.00 1.22 63 1013.4
20260509163503 76 83 3.5 4.3 0.29 3.00 1.22 63 1013.4
20260509163404 76 318 3.5 4.3 0.29 2.99 1.21 63 1013.3
20260509163303 76 117 3.5 4.3 0.29 2.99 1.21 62 1013.2
20260509163206 76 136 3.5 4.3 0.29 2.99 1.21 62 1013.2
20260509163104 76 59 3.5 4.3 0.29 2.99 1.21 63 1013.2
20260509163004 76 324 3.5 4.3 0.29 2.99 1.21 63 1013.2
20260509162900 76 285 2.6 3.5 0.29 2.99 1.21 62 1013.2
20260509162801 76 131 2.6 3.5 0.29 2.99 1.21 62 1013.2
20260509162700 76 132 2.6 3.5 0.29 2.99 1.21 62 1013.2
20260509162600 76 134 2.6 3.5 0.29 2.99 1.21 62 1013.2
20260509162501 76 319 2.6 4.3 0.29 2.99 1.21 62 1013.2
20260509162400 76 313 2.6 4.3 0.29 2.99 1.21 63 1013.2
20260509162301 76 315 2.6 4.3 0.29 2.99 1.21 63 1013.2
20260509162202 76 310 2.6 4.3 0.29 2.99 1.21 62 1013.2
20260509162100 76 327 2.6 4.3 0.29 2.99 1.21 63 1013.2
20260509162001 76 319 2.6 4.3 0.29 2.99 1.21 62 1013.2
20260509161846 76 316 2.6 4.3 0.30 2.99 1.21 62 1013.1
20260509161745 76 316 2.6 4.3 0.30 2.98 1.20 63 1013.0
20260509161646 76 315 2.6 4.3 0.30 2.98 1.20 62 1012.9
20260509161555 76 327 2.6 4.3 0.29 2.98 1.20 62 1012.8
20260509161548 76 322 2.6 4.3 0.30 2.97 1.19 62 1012.7
20260509161345 76 318 2.6 3.5 0.29 2.96 1.18 62 1012.7
20260509161246 76 317 2.6 3.5 0.30 2.96 1.18 63 1012.7
20260509161147 76 316 2.6 3.5 0.33 2.96 1.18 63 1012.8
20260509161045 76 318 2.6 3.5 0.33 2.96 1.18 62 1012.8
20260509160948 76 315 2.6 3.5 0.34 2.96 1.18 62 1012.9
20260509160845 76 122 2.6 3.5 0.35 2.95 1.17 62 1013.0
20260509160807 76 322 2.6 3.5 0.36 2.94 1.17 62 1013.1
20260509160646 76 322 2.6 3.5 0.37 2.93 1.15 62 1013.2
20260509160555 76 320 2.6 3.5 0.38 2.91 1.13 62 1013.2
20260509160548 76 323 2.6 3.5 0.40 2.91 1.13 63 1013.3
20260509160346 76 316 2.6 3.5 0.40 2.91 1.13 63 1013.3
20260509160244 76 315 1.7 3.5 0.41 2.91 1.13 63 1013.5
20260509160143 76 319 1.7 3.5 0.41 2.91 1.13 62 1013.5
20260509160044 76 310 1.7 3.5 0.41 2.91 1.13 63 1013.5
20260509155844 76 315 1.7 2.6 0.39 2.89 1.11 62 1013.3
20260509155744 76 314 1.7 2.6 0.38 2.88 1.10 62 1013.2
20260509155644 76 333 1.7 2.6 0.37 2.86 1.08 62 1013.0
20260509155545 76 316 1.7 3.5 0.33 2.82 1.04 62 1012.9
20260509155345 76 324 1.7 3.5 0.29 2.77 0.99 62 1013.0
20260509155244 76 317 1.7 3.5 0.30 2.77 0.99 62 1013.2
20260509155144 76 311 1.7 3.5 0.30 2.77 0.99 62 1013.3
20260509155044 76 312 1.7 3.5 0.30 2.76 0.98 62 1013.3
20260509154844 76 308 1.7 3.5 0.33 2.75 0.97 62 1013.2
20260509154745 76 315 1.7 3.5 0.35 2.75 0.97 62 1013.2
20260509154644 76 316 2.6 3.5 0.39 2.74 0.96 62 1013.3
20260509154545 76 310 2.6 3.5 0.42 2.74 0.96 62 1013.4
20260509154345 76 335 2.6 3.5 0.41 2.72 0.94 62 1013.4
20260509154244 76 320 2.6 3.5 0.41 2.72 0.94 62 1013.4
20260509154144 76 308 2.6 3.5 0.41 2.72 0.94 62 1013.3
20260509154044 76 325 2.6 3.5 0.42 2.71 0.93 62 1013.3
20260509153844 76 293 2.6 3.5 0.44 2.70 0.93 62 1013.3
20260509153744 76 312 2.6 3.5 0.45 2.70 0.93 62 1013.3
20260509153645 76 290 2.6 3.5 0.45 2.70 0.93 62 1013.3
20260509153544 76 318 2.6 3.5 0.46 2.70 0.93 62 1013.3
20260509153344 76 316 2.6 3.5 0.46 2.70 0.93 62 1013.2
20260509153236 76 333 2.6 3.5 0.46 2.70 0.93 62 1013.2
20260509153135 76 316 2.6 3.5 0.46 2.70 0.93 62 1013.2
20260509153036 76 336 2.6 3.5 0.46 2.70 0.93 62 1013.2
20260509152836 76 128 2.6 3.5 0.46 2.70 0.93 62 1013.2
20260509152736 76 320 2.6 3.5 0.46 2.70 0.92 62 1013.1
20260509152700 76 125 2.6 3.5 0.46 2.70 0.92 62 1013.0
20260509152653 76 148 2.6 3.5 0.46 2.70 0.92 62 1013.0
20260509152634 76 137 2.6 3.5 0.46 2.70 0.92 62 1012.9
20260509152628 76 316 2.6 3.5 0.46 2.70 0.92 62 1012.9
20260509152619 76 107 2.6 3.5 0.46 2.70 0.92 62 1012.8
20260509152612 76 137 2.6 3.5 0.46 2.70 0.92 62 1012.9
20260509152554 76 139 2.6 3.5 0.45 2.69 0.91 62 1013.0
20260509152546 76 142 2.6 3.5 0.45 2.69 0.91 62 1013.0
20260509152539 76 125 2.6 3.5 0.46 2.69 0.91 62 1013.0
20260509152532 76 138 2.6 3.5 0.45 2.68 0.90 62 1013.0
20260509152525 76 135 2.6 3.5 0.45 2.67 0.89 62 1013.1
20260509152414 76 131 2.6 3.5 0.44 2.66 0.88 62 1013.1
20260509152406 76 142 2.6 3.5 0.42 2.63 0.87 62 1013.1
20260509152358 76 128 2.6 3.5 0.42 2.63 0.85 62 1013.1
20260509152351 76 146 2.6 3.5 0.41 2.61 0.83 62 1013.1
20260509152332 76 132 2.6 3.5 0.37 2.58 0.80 62 1013.1
20260509152325 76 144 2.6 3.5 0.35 2.56 0.78 62 1013.0
20260509150631 76 145 2.6 3.5 0.33 2.53 0.75 62 1013.0
20260509150543 76 324 2.6 3.5 0.31 2.51 0.73 62 1013.1
20260509150536 76 154 2.6 4.3 0.30 2.51 0.73 62 1013.1
20260509150332 76 147 2.6 4.3 0.30 2.50 0.72 62 1013.2
20260509150232 76 143 2.6 4.3 0.30 2.50 0.72 62 1013.1
20260509150131 76 135 2.6 4.3 0.30 2.50 0.72 62 1013.1
20260509150033 76 129 2.6 4.3 0.30 2.50 0.72 62 1013.1
20260509145831 76 148 2.6 4.3 0.31 2.50 0.72 62 1013.0
20260509145732 76 121 2.6 4.3 0.30 2.50 0.72 62 1013.0
20260509145633 76 135 2.6 4.3 0.30 2.49 0.71 62 1013.0
20260509145332 76 132 2.6 3.5 0.29 2.48 0.70 62 1012.8
20260509145232 76 94 2.6 3.5 0.28 2.48 0.70 62 1012.8
20260509145131 76 114 2.6 3.5 0.27 2.46 0.69 62 1012.7
20260509145032 76 116 2.6 3.5 0.27 2.46 0.68 62 1012.8
20260509144832 76 140 1.7 3.5 0.23 2.42 0.64 62 1012.9
20260509144732 76 320 1.7 3.5 0.20 2.39 0.61 62 1013.1
20260509144632 76 317 1.7 3.5 0.16 2.35 0.57 62 1013.2
20260509144532 76 133 1.7 3.5 0.13 2.32 0.54 62 1013.4
20260509144331 76 29 1.7 2.6 0.12 2.31 0.54 62 1013.4
20260509144232 76 39 1.7 3.5 0.12 2.31 0.53 62 1013.4
20260509144132 76 45 1.7 3.5 0.11 2.30 0.52 62 1013.3
20260509144032 76 317 2.6 3.5 0.10 2.29 0.51 62 1013.1
20260509143832 76 312 2.6 3.5 0.07 2.27 0.49 62 1012.9
20260509143732 76 325 2.6 3.5 0.06 2.26 0.48 62 1012.8
20260509143533 76 331 2.6 3.5 0.05 2.24 0.46 62 1012.8
20260509143332 76 304 2.6 3.5 0.05 2.24 0.46 62 1013.0
20260509143232 76 329 2.6 3.5 0.05 2.24 0.46 62 1013.0
20260509143133 76 319 2.6 3.5 0.05 2.24 0.46 62 1013.1
20260509143032 76 309 2.6 3.5 0.05 2.24 0.46 62 1013.1
20260509142832 75 308 2.6 3.5 0.06 2.24 0.46 62 1013.1
20260509142732 76 300 2.6 3.5 0.07 2.24 0.46 62 1013.0
20260509142632 76 347 2.6 3.5 0.07 2.24 0.46 62 1013.0
20260509142532 76 322 2.6 3.5 0.07 2.24 0.46 62 1013.0
20260509142332 76 326 2.6 3.5 0.08 2.24 0.46 62 1012.9
20260509142232 76 331 2.6 3.5 0.08 2.24 0.46 62 1012.9
20260509142132 76 326 2.6 3.5 0.09 2.24 0.46 62 1012.9
20260509142033 76 314 2.6 3.5 0.09 2.24 0.46 62 1012.9
20260509141832 76 308 2.6 2.6 0.10 2.23 0.45 62 1012.9
20260509141732 76 296 2.6 2.6 0.11 2.23 0.45 62 1012.9
20260509141633 76 310 2.6 2.6 0.10 2.23 0.45 62 1012.8
20260509141533 75 325 2.6 2.6 0.10 2.22 0.44 62 1012.8
20260509141332 76 285 2.6 2.6 0.10 2.22 0.44 62 1012.9
20260509141233 76 135 2.6 2.6 0.10 2.21 0.43 62 1012.9
20260509141133 76 308 2.6 3.5 0.10 2.21 0.43 62 1013.0
20260509141033 75 328 2.6 3.5 0.10 2.21 0.43 62 1013.0
20260509140833 75 321 2.6 3.5 0.11 2.21 0.43 62 1013.1
20260509140732 76 335 2.6 3.5 0.12 2.20 0.43 62 1013.1
20260509140633 76 317 2.6 3.5 0.12 2.20 0.43 62 1013.1
20260509140532 76 315 2.6 3.5 0.13 2.20 0.43 62 1013.1
20260509140317 76 317 2.6 3.5 0.15 2.20 0.43 61 1013.1
20260509140222 76 320 2.6 3.5 0.15 2.20 0.42 61 1013.0
20260509140118 75 332 2.6 3.5 0.17 2.20 0.42 61 1012.9
20260509140015 76 331 2.6 3.5 0.23 2.20 0.42 61 1012.9
20260509135902 75 327 2.6 2.6 0.23 2.20 0.42 61 1012.7
20260509135803 76 317 2.6 2.6 0.32 2.19 0.41 61 1012.7
20260509135702 75 317 2.6 2.6 0.32 2.19 0.41 61 1012.6
20260509135603 76 310 2.6 2.6 0.37 2.19 0.41 61 1012.5
20260509135502 75 320 2.6 3.5 0.37 2.19 0.41 61 1012.6
20260509135403 76 320 2.6 3.5 0.38 2.19 0.41 61 1012.6
20260509135305 76 328 2.6 3.5 0.38 2.19 0.41 61 1012.6
20260509135202 75 323 2.6 3.5 0.39 2.19 0.41 61 1012.5
20260509135102 75 311 2.6 3.5 0.39 2.19 0.41 61 1012.3
20260509134948 76 330 2.6 3.5 0.40 2.19 0.41 61 1012.3
20260509134847 76 315 2.6 3.5 0.40 2.19 0.41 61 1012.3
20260509134750 75 311 2.6 3.5 0.41 2.19 0.41 61 1012.3
20260509134743 76 311 2.6 3.5 0.41 2.19 0.41 61 1012.3
20260509134547 76 340 2.6 3.5 0.41 2.19 0.41 61 1012.4
20260509134522 76 337 2.6 3.5 0.41 2.19 0.41 61 1012.5
20260509134348 75 336 2.6 3.5 0.41 2.19 0.41 61 1012.5
20260509134247 76 321 2.6 3.5 0.41 2.19 0.41 61 1012.6
20260509134148 76 340 2.6 3.5 0.41 2.19 0.41 61 1012.6
20260509134047 75 337 2.6 3.5 0.41 2.19 0.41 61 1012.7
20260509134022 75 319 2.6 3.5 0.41 2.19 0.41 61 1012.7
20260509133848 75 329 2.6 3.5 0.41 2.19 0.41 61 1012.7
20260509133748 75 324 2.6 3.5 0.41 2.19 0.41 61 1012.8
20260509133648 75 303 2.6 3.5 0.41 2.19 0.41 61 1012.8
20260509133548 76 303 2.6 3.5 0.41 2.19 0.41 61 1012.9
20260509133448 75 307 2.6 3.5 0.41 2.19 0.41 61 1012.8
20260509133348 75 310 2.6 3.5 0.41 2.19 0.41 61 1012.8
20260509133248 75 343 2.6 3.5 0.41 2.19 0.41 61 1012.8
20260509133148 75 340 2.6 3.5 0.41 2.19 0.41 61 1012.8
20260509133048 76 301 2.6 3.5 0.41 2.19 0.41 61 1012.9
20260509132948 75 311 2.6 3.5 0.41 2.19 0.41 60 1012.9
20260509132849 76 318 2.6 3.5 0.41 2.19 0.41 60 1012.9
20260509132747 75 313 2.6 3.5 0.41 2.19 0.41 60 1012.9
20260509132648 76 315 2.6 3.5 0.39 2.17 0.39 60 1012.9
20260509132549 75 316 2.6 3.5 0.39 2.17 0.39 60 1013.0
20260509132448 75 324 2.6 3.5 0.39 2.17 0.39 60 1013.1
20260509132348 75 341 2.6 3.5 0.39 2.17 0.39 60 1013.1
20260509132248 75 298 2.6 2.6 0.38 2.16 0.38 60 1013.2
20260509132148 76 306 2.6 2.6 0.38 2.16 0.38 60 1013.2
20260509132049 75 300 2.6 3.5 0.37 2.15 0.37 60 1013.2
20260509131948 76 334 2.6 3.5 0.36 2.14 0.36 60 1013.2
20260509131848 76 328 2.6 3.5 0.35 2.13 0.35 60 1013.3
20260509131749 76 325 2.6 3.5 0.35 2.13 0.35 60 1013.3
20260509131648 76 313 2.6 3.5 0.35 2.13 0.35 60 1013.4
20260509131548 76 324 2.6 3.5 0.35 2.13 0.35 60 1013.4
20260509131523 75 329 2.6 3.5 0.35 2.13 0.35 59 1013.5
20260509131348 75 312 2.6 3.5 0.34 2.12 0.34 59 1013.5
20260509131248 76 339 2.6 3.5 0.33 2.11 0.33 59 1013.7